DW9796 Weather Reports


Display with metric or nautical units.
time (UTC)temp
F
wind
direction
speed
MPH
gust
MPH
rain 1hr
in
rain 24hr
in
rain mn
in
humidity
%
barometer
mb
20240225190904 78 202 5.0 13.0 0.00 0.00 0.00 55 1015.4
20240225190805 78 203 5.0 13.0 0.00 0.00 0.00 55 1015.5
20240225190704 78 205 5.0 13.0 0.00 0.00 0.00 55 1015.5
20240225190504 78 205 4.0 13.0 0.00 0.00 0.00 54 1015.6
20240225190404 78 207 4.0 13.0 0.00 0.00 0.00 54 1015.7
20240225190305 78 207 4.0 11.0 0.00 0.00 0.00 56 1015.7
20240225190204 78 211 4.0 11.0 0.00 0.00 0.00 54 1015.7
20240225190103 78 219 4.0 11.0 0.00 0.00 0.00 55 1015.7
20240225190003 78 225 4.0 10.0 0.00 0.00 0.00 56 1015.8
20240225185904 78 227 4.0 9.0 0.00 0.00 0.00 56 1015.8
20240225185804 78 227 4.0 9.0 0.00 0.00 0.00 56 1015.7
20240225185704 77 224 4.0 9.0 0.00 0.00 0.00 55 1015.8
20240225185604 78 225 4.0 9.0 0.00 0.00 0.00 56 1015.8
20240225185503 78 223 4.0 9.0 0.00 0.00 0.00 57 1015.8
20240225185403 78 222 4.0 9.0 0.00 0.00 0.00 57 1015.8
20240225185305 78 221 4.0 9.0 0.00 0.00 0.00 57 1015.9
20240225185205 78 216 4.0 10.0 0.00 0.00 0.00 55 1015.9
20240225185104 78 206 4.0 11.0 0.00 0.00 0.00 55 1015.9
20240225185004 78 202 5.0 11.0 0.00 0.00 0.00 57 1015.9
20240225184905 78 200 5.0 13.0 0.00 0.00 0.00 57 1015.9
20240225184803 78 199 4.0 13.0 0.00 0.00 0.00 57 1015.9
20240225184703 77 200 4.0 13.0 0.00 0.00 0.00 58 1015.9
20240225184604 77 199 5.0 13.0 0.00 0.00 0.00 56 1015.9
20240225184404 77 197 5.0 13.0 0.00 0.00 0.00 56 1016.0
20240225184303 77 195 4.0 13.0 0.00 0.00 0.00 56 1016.0
20240225184204 77 194 4.0 13.0 0.00 0.00 0.00 56 1016.0
20240225184104 77 196 4.0 13.0 0.00 0.00 0.00 56 1016.0
20240225184004 77 199 4.0 13.0 0.00 0.00 0.00 57 1016.0
20240225183703 76 198 5.0 11.0 0.00 0.00 0.00 56 1016.1
20240225183604 77 203 5.0 11.0 0.00 0.00 0.00 56 1016.1
20240225183504 77 211 5.0 11.0 0.00 0.00 0.00 57 1016.2
20240225183404 77 215 5.0 11.0 0.00 0.00 0.00 56 1016.2
20240225183203 76 223 5.0 10.0 0.00 0.00 0.00 57 1016.2
20240225183104 76 222 5.0 10.0 0.00 0.00 0.00 58 1016.1
20240225183004 76 223 5.0 10.0 0.00 0.00 0.00 58 1016.1
20240225182904 76 227 5.0 10.0 0.00 0.00 0.00 58 1016.2
20240225182804 76 233 4.0 10.0 0.00 0.00 0.00 58 1016.1
20240225182603 76 227 4.0 10.0 0.00 0.00 0.00 60 1016.2
20240225182504 76 217 4.0 10.0 0.00 0.00 0.00 59 1016.2
20240225182403 76 213 4.0 10.0 0.00 0.00 0.00 59 1016.2
20240225182306 76 209 4.0 10.0 0.00 0.00 0.00 59 1016.3
20240225182203 76 204 3.0 10.0 0.00 0.00 0.00 58 1016.3
20240225182104 76 206 3.0 8.0 0.00 0.00 0.00 59 1016.3
20240225182004 76 210 3.0 8.0 0.00 0.00 0.00 59 1016.3
20240225181904 76 213 4.0 11.0 0.00 0.00 0.00 60 1016.4
20240225181803 76 215 4.0 11.0 0.00 0.00 0.00 61 1016.4
20240225181704 76 215 4.0 11.0 0.00 0.00 0.00 61 1016.4
20240225181603 75 214 4.0 11.0 0.00 0.00 0.00 60 1016.5
20240225181504 75 211 4.0 11.0 0.00 0.00 0.00 62 1016.5
20240225181404 75 211 4.0 11.0 0.00 0.00 0.00 62 1016.4
20240225181303 75 213 4.0 11.0 0.00 0.00 0.00 61 1016.5
20240225181205 75 217 4.0 11.0 0.00 0.00 0.00 61 1016.6
20240225181104 75 217 4.0 11.0 0.00 0.00 0.00 62 1016.6
20240225181004 74 209 4.0 11.0 0.00 0.00 0.00 62 1016.6
20240225180904 74 202 4.0 10.0 0.00 0.00 0.00 61 1016.6
20240225180804 74 199 4.0 10.0 0.00 0.00 0.00 62 1016.6
20240225180703 74 201 4.0 10.0 0.00 0.00 0.00 62 1016.7
20240225180604 74 206 4.0 10.0 0.00 0.00 0.00 61 1016.7
20240225180503 74 212 4.0 10.0 0.00 0.00 0.00 61 1016.8
20240225180103 74 211 4.0 10.0 0.00 0.00 0.00 62 1016.8
20240225180004 74 218 4.0 10.0 0.00 0.00 0.00 62 1016.9
20240225175904 74 222 3.0 8.0 0.00 0.00 0.00 63 1016.9
20240225175804 74 224 3.0 8.0 0.00 0.00 0.00 62 1017.0
20240225175704 74 226 3.0 8.0 0.00 0.00 0.00 62 1017.0
20240225175603 74 226 3.0 8.0 0.00 0.00 0.00 62 1017.0
20240225175503 74 225 3.0 8.0 0.00 0.00 0.00 65 1017.0
20240225175306 74 216 3.0 12.0 0.00 0.00 0.00 65 1017.0
20240225175204 73 214 4.0 12.0 0.00 0.00 0.00 64 1017.1
20240225175104 73 207 4.0 12.0 0.00 0.00 0.00 63 1017.0
20240225175003 73 207 4.0 12.0 0.00 0.00 0.00 63 1017.1
20240225174903 73 206 4.0 12.0 0.00 0.00 0.00 64 1017.1
20240225174804 73 203 4.0 12.0 0.00 0.00 0.00 64 1017.1
20240225174704 73 199 4.0 12.0 0.00 0.00 0.00 64 1017.1
20240225174604 73 199 4.0 12.0 0.00 0.00 0.00 67 1017.1
20240225174403 73 203 4.0 12.0 0.00 0.00 0.00 64 1017.2
20240225174304 73 211 5.0 9.0 0.00 0.00 0.00 63 1017.2
20240225174104 73 227 4.0 9.0 0.00 0.00 0.00 63 1017.1
20240225174004 73 232 4.0 9.0 0.00 0.00 0.00 63 1017.2
20240225173903 73 235 4.0 9.0 0.00 0.00 0.00 65 1017.2
20240225173804 73 236 4.0 9.0 0.00 0.00 0.00 65 1017.3
20240225173704 73 237 4.0 9.0 0.00 0.00 0.00 64 1017.3
20240225173605 73 235 4.0 9.0 0.00 0.00 0.00 64 1017.3
20240225173504 73 230 5.0 9.0 0.00 0.00 0.00 64 1017.3
20240225173404 73 232 5.0 9.0 0.00 0.00 0.00 64 1017.3
20240225173304 73 229 4.0 9.0 0.00 0.00 0.00 65 1017.4
20240225173204 73 223 4.0 9.0 0.00 0.00 0.00 66 1017.3
20240225173104 72 219 4.0 9.0 0.00 0.00 0.00 66 1017.3
20240225172904 72 206 4.0 9.0 0.00 0.00 0.00 66 1017.4
20240225172803 72 208 4.0 9.0 0.00 0.00 0.00 64 1017.3
20240225172704 72 205 3.0 9.0 0.00 0.00 0.00 66 1017.4
20240225172504 72 204 3.0 9.0 0.00 0.00 0.00 65 1017.4
20240225172305 72 201 3.0 10.0 0.00 0.00 0.00 65 1017.4
20240225172204 72 203 4.0 10.0 0.00 0.00 0.00 67 1017.4
20240225172104 72 200 4.0 12.0 0.00 0.00 0.00 67 1017.4
20240225171903 72 204 4.0 12.0 0.00 0.00 0.00 67 1017.5
20240225171804 72 205 4.0 12.0 0.00 0.00 0.00 67 1017.5
20240225171704 72 212 4.0 12.0 0.00 0.00 0.00 67 1017.4
20240225171604 72 212 4.0 12.0 0.00 0.00 0.00 67 1017.4
20240225171504 72 214 4.0 12.0 0.00 0.00 0.00 67 1017.5
20240225171303 72 211 5.0 12.0 0.00 0.00 0.00 67 1017.5
20240225171203 72 212 4.0 12.0 0.00 0.00 0.00 67 1017.5
20240225171104 72 216 4.0 11.0 0.00 0.00 0.00 67 1017.5
20240225171004 72 214 5.0 11.0 0.00 0.00 0.00 69 1017.6
20240225170904 71 219 5.0 11.0 0.00 0.00 0.00 70 1017.5
20240225170805 71 219 4.0 11.0 0.00 0.00 0.00 70 1017.6
20240225170705 71 214 5.0 11.0 0.00 0.00 0.00 69 1017.5
20240225170604 71 212 5.0 11.0 0.00 0.00 0.00 69 1017.5
20240225170503 71 208 5.0 11.0 0.00 0.00 0.00 68 1017.6
20240225170403 71 209 4.0 11.0 0.00 0.00 0.00 71 1017.6
20240225170303 70 209 4.0 11.0 0.00 0.00 0.00 71 1017.6
20240225170104 70 207 4.0 11.0 0.00 0.00 0.00 70 1017.6
20240225170004 70 207 4.0 11.0 0.00 0.00 0.00 70 1017.6
20240225165904 70 201 4.0 11.0 0.00 0.00 0.00 69 1017.6
20240225165803 70 198 4.0 11.0 0.00 0.00 0.00 69 1017.6
20240225165703 70 195 4.0 11.0 0.00 0.00 0.00 69 1017.6
20240225165604 70 198 4.0 12.0 0.00 0.00 0.00 69 1017.6
20240225165504 70 200 5.0 12.0 0.00 0.00 0.00 70 1017.6
20240225165405 70 200 5.0 12.0 0.00 0.00 0.00 71 1017.7
20240225165306 70 201 5.0 12.0 0.00 0.00 0.00 70 1017.7
20240225165203 70 204 5.0 12.0 0.00 0.00 0.00 70 1017.8
20240225165103 70 209 6.0 12.0 0.00 0.00 0.00 72 1017.8
20240225165004 70 214 6.0 12.0 0.00 0.00 0.00 71 1017.7
20240225164804 70 218 6.0 13.0 0.00 0.00 0.00 72 1017.8
20240225164604 70 224 6.0 13.0 0.00 0.00 0.00 71 1017.8
20240225164503 70 224 6.0 13.0 0.00 0.00 0.00 71 1017.9
20240225164404 69 224 6.0 13.0 0.00 0.00 0.00 72 1017.9
20240225164305 69 223 6.0 13.0 0.00 0.00 0.00 72 1017.9
20240225164205 69 221 5.0 13.0 0.00 0.00 0.00 72 1017.9
20240225164105 69 217 5.0 13.0 0.00 0.00 0.00 74 1018.0
20240225164004 69 214 6.0 13.0 0.00 0.00 0.00 71 1017.9
20240225163904 69 217 5.0 13.0 0.00 0.00 0.00 72 1017.9
20240225163804 69 220 5.0 13.0 0.00 0.00 0.00 72 1017.9
20240225163704 69 217 5.0 11.0 0.00 0.00 0.00 73 1017.9
20240225163604 69 217 5.0 11.0 0.00 0.00 0.00 74 1017.9
20240225163503 69 220 5.0 12.0 0.00 0.00 0.00 73 1017.9
20240225163404 69 221 5.0 12.0 0.00 0.00 0.00 73 1017.9
20240225163204 69 229 5.0 12.0 0.00 0.00 0.00 74 1018.0
20240225163104 69 233 5.0 12.0 0.00 0.00 0.00 74 1018.0
20240225162904 68 228 5.0 12.0 0.00 0.00 0.00 74 1018.0
20240225162804 68 222 5.0 12.0 0.00 0.00 0.00 74 1018.0
20240225162704 68 220 5.0 12.0 0.00 0.00 0.00 73 1018.1
20240225162603 68 219 4.0 12.0 0.00 0.00 0.00 73 1018.1
20240225162504 69 216 5.0 12.0 0.00 0.00 0.00 73 1018.1
20240225162404 69 214 5.0 12.0 0.00 0.00 0.00 75 1018.1
20240225162204 68 198 5.0 12.0 0.00 0.00 0.00 75 1018.1
20240225161904 68 189 5.0 12.0 0.00 0.00 0.00 75 1018.2
20240225161804 68 193 6.0 11.0 0.00 0.00 0.00 76 1018.1
20240225161504 68 194 6.0 11.0 0.00 0.00 0.00 76 1018.2
20240225161405 68 195 6.0 11.0 0.00 0.00 0.00 76 1018.2
20240225161304 68 196 6.0 12.0 0.00 0.00 0.00 76 1018.2
20240225161204 68 199 5.0 12.0 0.00 0.00 0.00 76 1018.3
20240225161103 68 200 5.0 12.0 0.00 0.00 0.00 76 1018.3
20240225161003 67 208 5.0 12.0 0.00 0.00 0.00 77 1018.2
20240225160904 67 208 6.0 12.0 0.00 0.00 0.00 76 1018.3
20240225160804 67 204 5.0 12.0 0.00 0.00 0.00 77 1018.3
20240225160704 67 204 6.0 12.0 0.00 0.00 0.00 77 1018.4
20240225160604 67 202 6.0 15.0 0.00 0.00 0.00 77 1018.3
20240225160502 67 202 6.0 15.0 0.00 0.00 0.00 77 1018.3
20240225160402 67 205 6.0 15.0 0.00 0.00 0.00 77 1018.3
20240225160302 67 207 6.0 15.0 0.00 0.00 0.00 77 1018.2
20240225160203 67 208 6.0 15.0 0.00 0.00 0.00 78 1018.2
20240225160103 67 209 5.0 15.0 0.00 0.00 0.00 78 1018.2
20240225160003 67 202 5.0 15.0 0.00 0.00 0.00 78 1018.2
20240225155903 66 204 5.0 15.0 0.00 0.00 0.00 78 1018.3
20240225155802 67 207 5.0 15.0 0.00 0.00 0.00 78 1018.4
20240225155702 67 207 5.0 15.0 0.00 0.00 0.00 78 1018.3
20240225155503 66 209 5.0 19.0 0.00 0.00 0.00 78 1018.4
20240225155403 66 205 4.0 19.0 0.00 0.00 0.00 79 1018.3
20240225155202 66 206 4.0 19.0 0.00 0.00 0.00 80 1018.4
20240225155102 66 209 5.0 19.0 0.00 0.00 0.00 80 1018.4
20240225154803 66 210 6.0 19.0 0.00 0.00 0.00 79 1018.4
20240225154704 66 210 5.0 19.0 0.00 0.00 0.00 79 1018.4
20240225154504 66 208 5.0 18.0 0.00 0.00 0.00 79 1018.4
20240225154403 66 212 6.0 18.0 0.00 0.00 0.00 81 1018.4
20240225154304 66 211 6.0 18.0 0.00 0.00 0.00 80 1018.4
20240225154202 65 209 6.0 18.0 0.00 0.00 0.00 80 1018.4
20240225154102 65 206 6.0 18.0 0.00 0.00 0.00 80 1018.4
20240225154003 65 203 6.0 18.0 0.00 0.00 0.00 80 1018.5
20240225153903 66 202 6.0 18.0 0.00 0.00 0.00 80 1018.5
20240225153702 65 203 6.0 17.0 0.00 0.00 0.00 80 1018.4
20240225153602 65 208 6.0 15.0 0.00 0.00 0.00 81 1018.4
20240225153502 65 210 6.0 15.0 0.00 0.00 0.00 81 1018.4
20240225153402 65 210 5.0 15.0 0.00 0.00 0.00 80 1018.4
20240225153303 65 213 5.0 15.0 0.00 0.00 0.00 80 1018.4
20240225153203 65 217 4.0 15.0 0.00 0.00 0.00 80 1018.4
20240225153103 65 221 4.0 15.0 0.00 0.00 0.00 84 1018.5
20240225153002 65 224 4.0 15.0 0.00 0.00 0.00 84 1018.5
20240225152903 65 229 3.0 9.0 0.00 0.00 0.00 84 1018.5
20240225152703 65 231 3.0 9.0 0.00 0.00 0.00 84 1018.4
20240225152602 65 226 3.0 9.0 0.00 0.00 0.00 84 1018.5
20240225152503 65 222 3.0 9.0 0.00 0.00 0.00 84 1018.6
20240225152306 65 218 3.0 7.0 0.00 0.00 0.00 84 1018.5
20240225152203 65 216 3.0 7.0 0.00 0.00 0.00 84 1018.5
20240225152103 64 214 3.0 7.0 0.00 0.00 0.00 84 1018.5
20240225152003 64 211 3.0 6.0 0.00 0.00 0.00 84 1018.5
20240225151902 64 207 2.0 9.0 0.00 0.00 0.00 84 1018.5
20240225151803 64 203 2.0 9.0 0.00 0.00 0.00 84 1018.5
20240225151603 64 211 3.0 9.0 0.00 0.00 0.00 84 1018.5
20240225151402 64 211 2.0 9.0 0.00 0.00 0.00 84 1018.5
20240225151302 64 214 2.0 9.0 0.00 0.00 0.00 84 1018.5
20240225151203 64 213 2.0 9.0 0.00 0.00 0.00 84 1018.5
20240225150902 63 223 2.0 9.0 0.00 0.00 0.00 84 1018.3
20240225150803 63 227 2.0 9.0 0.00 0.00 0.00 83 1018.3
20240225150703 63 226 2.0 8.0 0.00 0.00 0.00 82 1018.3
20240225150604 63 225 2.0 8.0 0.00 0.00 0.00 83 1018.3
20240225150503 63 225 2.0 8.0 0.00 0.00 0.00 83 1018.4
20240225150403 63 217 2.0 8.0 0.00 0.00 0.00 83 1018.4
20240225150303 63 216 3.0 8.0 0.00 0.00 0.00 85 1018.4
20240225150202 63 214 3.0 8.0 0.00 0.00 0.00 84 1018.4
20240225150102 63 206 3.0 8.0 0.00 0.00 0.00 85 1018.4
20240225150003 63 202 3.0 8.0 0.00 0.00 0.00 85 1018.4
20240225145903 63 201 4.0 9.0 0.00 0.00 0.00 85 1018.4
20240225145802 62 195 4.0 9.0 0.00 0.00 0.00 84 1018.4
20240225145702 62 193 3.0 9.0 0.00 0.00 0.00 85 1018.4
20240225145503 62 197 3.0 9.0 0.00 0.00 0.00 85 1018.4
20240225145403 62 199 3.0 9.0 0.00 0.00 0.00 85 1018.3
20240225145306 62 196 3.0 9.0 0.00 0.00 0.00 85 1018.3
20240225145204 62 197 2.0 9.0 0.00 0.00 0.00 85 1018.3
20240225145103 62 203 2.0 9.0 0.00 0.00 0.00 85 1018.2
20240225145002 62 203 2.0 9.0 0.00 0.00 0.00 85 1018.2
20240225144902 62 204 2.0 7.0 0.00 0.00 0.00 85 1018.2
20240225144803 62 217 2.0 7.0 0.00 0.00 0.00 85 1018.3
20240225144703 62 223 2.0 7.0 0.00 0.00 0.00 85 1018.3
20240225144604 62 219 1.0 7.0 0.00 0.00 0.00 85 1018.3
20240225144503 62 221 2.0 7.0 0.00 0.00 0.00 87 1018.4
20240225144402 62 220 2.0 7.0 0.00 0.00 0.00 86 1018.3
20240225144302 61 220 2.0 7.0 0.00 0.00 0.00 86 1018.3
20240225144202 61 220 2.0 7.0 0.00 0.00 0.00 86 1018.2
20240225144103 61 218 2.0 7.0 0.00 0.00 0.00 86 1018.3
20240225144003 61 220 2.0 7.0 0.00 0.00 0.00 86 1018.3
20240225143903 61 231 2.0 5.0 0.00 0.00 0.00 86 1018.3
20240225143802 61 225 2.0 5.0 0.00 0.00 0.00 87 1018.3
20240225143702 61 220 2.0 6.0 0.00 0.00 0.00 87 1018.3
20240225143603 61 221 1.0 6.0 0.00 0.00 0.00 87 1018.2
20240225143503 61 219 1.0 6.0 0.00 0.00 0.00 87 1018.2
20240225143402 61 221 1.0 6.0 0.00 0.00 0.00 87 1018.2
20240225143302 60 221 1.0 6.0 0.00 0.00 0.00 87 1018.2
20240225143103 60 239 1.0 6.0 0.00 0.00 0.00 87 1018.2
20240225142804 60 265 1.0 6.0 0.00 0.00 0.00 88 1018.2
20240225142703 60 269 1.0 4.0 0.00 0.00 0.00 88 1018.2
20240225142602 60 270 1.0 4.0 0.00 0.00 0.00 88 1018.2
20240225142502 59 272 1.0 4.0 0.00 0.00 0.00 88 1018.2
20240225142403 59 273 1.0 4.0 0.00 0.00 0.00 87 1018.2
20240225142307 59 270 1.0 4.0 0.00 0.00 0.00 87 1018.1
20240225142203 59 271 1.0 4.0 0.00 0.00 0.00 87 1018.0
20240225142103 59 275 1.0 4.0 0.00 0.00 0.00 88 1018.1
20240225142003 59 272 1.0 4.0 0.00 0.00 0.00 88 1018.1
20240225141902 59 272 1.0 4.0 0.00 0.00 0.00 88 1018.1
20240225141803 59 264 0.0 4.0 0.00 0.00 0.00 89 1018.1
20240225141603 59 267 0.0 3.0 0.00 0.00 0.00 89 1017.9
20240225141503 59 258 0.0 3.0 0.00 0.00 0.00 89 1017.9
20240225141402 58 256 0.0 3.0 0.00 0.00 0.00 89 1017.9
20240225141302 58 263 0.0 3.0 0.00 0.00 0.00 89 1017.8
20240225141202 58 262 0.0 3.0 0.00 0.00 0.00 90 1017.8
20240225141103 58 267 0.0 3.0 0.00 0.00 0.00 90 1017.8
20240225141003 58 266 0.0 3.0 0.00 0.00 0.00 90 1017.8
20240225140903 58 265 0.0 3.0 0.00 0.00 0.00 90 1017.8
20240225140802 58 272 0.0 2.0 0.00 0.00 0.00 90 1017.8
20240225140502 57 282 1.0 3.0 0.00 0.00 0.00 90 1017.8
20240225140403 57 280 1.0 3.0 0.00 0.00 0.00 90 1017.8
20240225140303 57 280 1.0 3.0 0.00 0.00 0.00 90 1017.8
20240225140203 57 283 0.0 3.0 0.00 0.00 0.00 90 1017.8
20240225140103 57 280 0.0 3.0 0.00 0.00 0.00 90 1017.8
20240225135902 57 290 0.0 3.0 0.00 0.00 0.00 91 1017.8
20240225135803 57 290 0.0 3.0 0.00 0.00 0.00 91 1017.8
20240225135703 57 296 0.0 3.0 0.00 0.00 0.00 91 1017.8
20240225135603 57 344 0.0 2.0 0.00 0.00 0.00 91 1017.8
20240225135502 57 352 0.0 2.0 0.00 0.00 0.00 91 1017.9
20240225135402 57 352 0.0 2.0 0.00 0.00 0.00 91 1017.8
20240225135305 57 352 0.0 2.0 0.00 0.00 0.00 91 1017.9
20240225135203 56 352 0.0 2.0 0.00 0.00 0.00 91 1017.8
20240225135103 56 351 0.0 2.0 0.00 0.00 0.00 91 1017.8
20240225135003 56 346 0.0 2.0 0.00 0.00 0.00 91 1017.8
20240225134902 56 346 0.0 2.0 0.00 0.00 0.00 91 1017.8
20240225134802 57 334 0.0 2.0 0.00 0.00 0.00 91 1017.8
20240225134703 57 333 0.0 2.0 0.00 0.00 0.00 91 1017.8
20240225134603 57 325 0.0 2.0 0.00 0.00 0.00 91 1017.8
20240225134504 57 298 0.0 2.0 0.00 0.00 0.00 92 1017.8
20240225134403 57 272 0.0 2.0 0.00 0.00 0.00 92 1017.8
20240225134302 57 270 0.0 2.0 0.00 0.00 0.00 93 1017.8
20240225134203 57 270 0.0 2.0 0.00 0.00 0.00 93 1017.7
20240225134102 56 251 0.0 2.0 0.00 0.00 0.00 93 1017.7
20240225134002 56 250 0.0 2.0 0.00 0.00 0.00 93 1017.7
20240225133803 56 284 0.0 2.0 0.00 0.00 0.00 93 1017.7
20240225133703 56 284 0.0 2.0 0.00 0.00 0.00 94 1017.6
20240225133503 56 284 0.0 2.0 0.00 0.00 0.00 94 1017.6
20240225133402 56 284 0.0 2.0 0.00 0.00 0.00 93 1017.6
20240225133302 55 284 0.0 1.0 0.00 0.00 0.00 93 1017.6
20240225133202 55 284 0.0 1.0 0.00 0.00 0.00 93 1017.6
20240225133003 55 0 0.0 0.0 0.00 0.00 0.00 93 1017.6
20240225132903 55 317 0.0 1.0 0.00 0.00 0.00 92 1017.6
20240225132802 55 317 0.0 1.0 0.00 0.00 0.00 92 1017.5
20240225132702 55 317 0.0 1.0 0.00 0.00 0.00 93 1017.6
20240225132603 55 317 0.0 1.0 0.00 0.00 0.00 93 1017.6
20240225132403 54 317 0.0 1.0 0.00 0.00 0.00 92 1017.6
20240225132203 54 317 0.0 1.0 0.00 0.00 0.00 90 1017.7
20240225132103 55 317 0.0 1.0 0.00 0.00 0.00 90 1017.7
20240225132003 55 317 0.0 1.0 0.00 0.00 0.00 91 1017.7
20240225131902 55 264 0.0 1.0 0.00 0.00 0.00 91 1017.6
20240225131802 55 264 0.0 1.0 0.00 0.00 0.00 91 1017.6
20240225131702 55 263 0.0 1.0 0.00 0.00 0.00 91 1017.5
20240225131603 56 260 0.0 2.0 0.00 0.00 0.00 91 1017.5
20240225131403 56 260 0.0 2.0 0.00 0.00 0.00 90 1017.5
20240225131203 56 259 0.0 2.0 0.00 0.00 0.00 91 1017.5
20240225131102 56 259 0.0 2.0 0.00 0.00 0.00 91 1017.5
20240225131003 56 259 0.0 2.0 0.00 0.00 0.00 92 1017.4
20240225130903 56 258 0.0 2.0 0.00 0.00 0.00 92 1017.5
20240225130804 56 258 0.0 2.0 0.00 0.00 0.00 92 1017.5
20240225130603 56 259 0.0 2.0 0.00 0.00 0.00 92 1017.4
20240225130504 56 259 0.0 2.0 0.00 0.00 0.00 92 1017.5
20240225130303 56 260 0.0 2.0 0.00 0.00 0.00 91 1017.5
20240225130103 56 258 0.0 2.0 0.00 0.00 0.00 91 1017.6
20240225130004 56 257 0.0 2.0 0.00 0.00 0.00 91 1017.6
20240225125903 56 263 0.0 2.0 0.00 0.00 0.00 91 1017.5
20240225125803 56 263 0.0 2.0 0.00 0.00 0.00 91 1017.6
20240225125704 56 263 0.0 2.0 0.00 0.00 0.00 91 1017.5
20240225125503 56 261 0.0 2.0 0.00 0.00 0.00 91 1017.6
20240225125403 56 261 0.0 2.0 0.00 0.00 0.00 91 1017.6
20240225125306 56 272 0.0 3.0 0.00 0.00 0.00 91 1017.6
20240225125203 56 272 0.0 3.0 0.00 0.00 0.00 91 1017.6
20240225124902 56 264 0.0 3.0 0.00 0.00 0.00 91 1017.6
20240225124802 56 264 0.0 3.0 0.00 0.00 0.00 91 1017.5
20240225124703 56 264 0.0 3.0 0.00 0.00 0.00 91 1017.6
20240225124603 56 264 0.0 3.0 0.00 0.00 0.00 90 1017.6
20240225124504 56 264 0.0 3.0 0.00 0.00 0.00 90 1017.6
20240225124403 56 264 0.0 3.0 0.00 0.00 0.00 90 1017.6
20240225124303 56 239 0.0 2.0 0.00 0.00 0.00 91 1017.4
20240225124202 56 239 0.0 2.0 0.00 0.00 0.00 91 1017.4
20240225124102 56 239 0.0 2.0 0.00 0.00 0.00 90 1017.4
20240225124002 56 239 0.0 2.0 0.00 0.00 0.00 90 1017.4
20240225123803 56 232 0.0 2.0 0.00 0.00 0.00 91 1017.3
20240225123703 56 224 0.0 2.0 0.00 0.00 0.00 90 1017.3
20240225123603 56 213 0.0 2.0 0.00 0.00 0.00 90 1017.3
20240225123504 56 216 0.0 2.0 0.00 0.00 0.00 90 1017.2
20240225123403 56 207 0.0 2.0 0.00 0.00 0.00 90 1017.3
20240225123303 56 214 0.0 2.0 0.00 0.00 0.00 90 1017.3
20240225123103 57 210 0.0 2.0 0.00 0.00 0.00 90 1017.2
20240225123002 57 210 0.0 2.0 0.00 0.00 0.00 90 1017.3
20240225122902 57 214 0.0 2.0 0.00 0.00 0.00 89 1017.3
20240225122802 57 216 0.0 2.0 0.00 0.00 0.00 90 1017.3
20240225122703 57 221 0.0 2.0 0.00 0.00 0.00 90 1017.3
20240225122603 57 222 0.0 2.0 0.00 0.00 0.00 90 1017.3
20240225122403 57 238 0.0 2.0 0.00 0.00 0.00 90 1017.2
20240225122306 57 243 0.0 2.0 0.00 0.00 0.00 90 1017.2
20240225122102 57 239 0.0 2.0 0.00 0.00 0.00 90 1017.3
20240225122003 57 231 0.0 2.0 0.00 0.00 0.00 90 1017.3
20240225121902 57 235 0.0 2.0 0.00 0.00 0.00 90 1017.3
20240225121803 57 231 0.0 2.0 0.00 0.00 0.00 89 1017.3
20240225121703 57 230 0.0 2.0 0.00 0.00 0.00 89 1017.3
20240225121503 57 231 0.0 2.0 0.00 0.00 0.00 89 1017.4
20240225121404 57 231 1.0 2.0 0.00 0.00 0.00 89 1017.3
20240225121303 57 243 1.0 4.0 0.00 0.00 0.00 90 1017.4
20240225121203 57 243 1.0 4.0 0.00 0.00 0.00 89 1017.4
20240225121102 57 244 0.0 4.0 0.00 0.00 0.00 89 1017.4
20240225121002 57 243 0.0 4.0 0.00 0.00 0.00 89 1017.3
20240225120902 57 239 1.0 4.0 0.00 0.00 0.00 90 1017.3
20240225120802 57 237 1.0 4.0 0.00 0.00 0.00 90 1017.4
20240225120703 57 230 1.0 4.0 0.00 0.00 0.00 89 1017.4
20240225120603 57 225 1.0 4.0 0.00 0.00 0.00 89 1017.4
20240225120402 57 220 1.0 4.0 0.00 0.00 0.00 89 1017.5
20240225120303 57 207 1.0 3.0 0.00 0.00 0.00 89 1017.4
20240225120203 57 203 1.0 3.0 0.00 0.00 0.00 88 1017.4
20240225120103 57 202 1.0 3.0 0.00 0.00 0.00 89 1017.4
20240225120003 57 203 1.0 3.0 0.00 0.00 0.00 89 1017.3
20240225115902 57 198 1.0 3.0 0.00 0.00 0.00 89 1017.4
20240225115802 57 198 1.0 3.0 0.00 0.00 0.00 89 1017.3
20240225115703 57 205 1.0 3.0 0.00 0.00 0.00 89 1017.3
20240225115603 57 206 0.0 3.0 0.00 0.00 0.00 89 1017.3
20240225115404 57 211 0.0 3.0 0.00 0.00 0.00 89 1017.3
20240225115306 57 213 0.0 3.0 0.00 0.00 0.00 89 1017.3
20240225115203 57 218 0.0 3.0 0.00 0.00 0.00 89 1017.4
20240225115102 57 217 0.0 5.0 0.00 0.00 0.00 89 1017.4
20240225115002 57 216 0.0 5.0 0.00 0.00 0.00 89 1017.4
20240225114902 57 216 0.0 5.0 0.00 0.00 0.00 89 1017.5
20240225114803 57 213 0.0 5.0 0.00 0.00 0.00 89 1017.5
20240225114703 57 202 0.0 5.0 0.00 0.00 0.00 89 1017.4
20240225114504 57 203 0.0 5.0 0.00 0.00 0.00 89 1017.4
20240225114403 57 206 0.0 5.0 0.00 0.00 0.00 89 1017.4
20240225114203 57 202 0.0 5.0 0.00 0.00 0.00 89 1017.4
20240225114103 57 203 0.0 4.0 0.00 0.00 0.00 89 1017.4
20240225113903 57 196 1.0 4.0 0.00 0.00 0.00 89 1017.4
20240225113802 57 196 1.0 4.0 0.00 0.00 0.00 88 1017.4
20240225113602 57 196 1.0 4.0 0.00 0.00 0.00 89 1017.3
20240225113302 57 186 0.0 3.0 0.00 0.00 0.00 89 1017.4
20240225113202 57 186 0.0 3.0 0.00 0.00 0.00 89 1017.4
20240225113103 57 185 0.0 3.0 0.00 0.00 0.00 89 1017.4
20240225113003 57 169 0.0 2.0 0.00 0.00 0.00 88 1017.5
20240225112903 57 185 0.0 2.0 0.00 0.00 0.00 88 1017.5
20240225112803 57 189 0.0 2.0 0.00 0.00 0.00 88 1017.5
20240225112602 57 193 0.0 2.0 0.00 0.00 0.00 88 1017.5
20240225112403 57 206 0.0 2.0 0.00 0.00 0.00 88 1017.5
20240225112306 57 191 0.0 4.0 0.00 0.00 0.00 88 1017.5
20240225112203 57 191 1.0 4.0 0.00 0.00 0.00 87 1017.4
20240225112004 58 201 1.0 4.0 0.00 0.00 0.00 88 1017.4
20240225111904 58 201 1.0 4.0 0.00 0.00 0.00 87 1017.4
20240225111803 58 199 1.0 4.0 0.00 0.00 0.00 87 1017.5
20240225111603 58 194 1.0 4.0 0.00 0.00 0.00 87 1017.4
20240225111402 58 196 1.0 4.0 0.00 0.00 0.00 87 1017.4
20240225111303 58 200 1.0 4.0 0.00 0.00 0.00 88 1017.4
20240225111202 58 201 1.0 4.0 0.00 0.00 0.00 88 1017.4
20240225111102 58 209 1.0 4.0 0.00 0.00 0.00 88 1017.4
20240225111003 58 211 1.0 4.0 0.00 0.00 0.00 88 1017.4
20240225110903 57 213 1.0 4.0 0.00 0.00 0.00 88 1017.4
20240225110603 58 225 1.0 3.0 0.00 0.00 0.00 87 1017.5
20240225110502 58 222 1.0 3.0 0.00 0.00 0.00 87 1017.5
20240225110403 58 227 1.0 3.0 0.00 0.00 0.00 88 1017.4
20240225110303 58 224 1.0 3.0 0.00 0.00 0.00 88 1017.4
20240225110203 58 214 0.0 3.0 0.00 0.00 0.00 87 1017.4
20240225110102 57 186 0.0 3.0 0.00 0.00 0.00 87 1017.4
20240225110003 57 185 0.0 3.0 0.00 0.00 0.00 87 1017.4
20240225105903 58 177 0.0 3.0 0.00 0.00 0.00 88 1017.4
20240225105803 57 178 1.0 3.0 0.00 0.00 0.00 87 1017.4
20240225105703 57 183 1.0 4.0 0.00 0.00 0.00 87 1017.3
20240225105502 57 183 1.0 4.0 0.00 0.00 0.00 87 1017.3
20240225105403 57 182 1.0 4.0 0.00 0.00 0.00 87 1017.2
20240225105305 57 178 1.0 4.0 0.00 0.00 0.00 87 1017.3
20240225105102 57 184 1.0 4.0 0.00 0.00 0.00 88 1017.2
20240225105003 57 184 0.0 4.0 0.00 0.00 0.00 87 1017.2
20240225104902 57 184 0.0 4.0 0.00 0.00 0.00 87 1017.2
20240225104802 57 183 0.0 4.0 0.00 0.00 0.00 87 1017.2
20240225104602 57 169 0.0 3.0 0.00 0.00 0.00 87 1017.2
20240225104502 57 169 0.0 2.0 0.00 0.00 0.00 87 1017.2
20240225104403 57 171 0.0 2.0 0.00 0.00 0.00 87 1017.3
20240225104303 57 177 0.0 2.0 0.00 0.00 0.00 86 1017.3
20240225104203 57 179 0.0 3.0 0.00 0.00 0.00 86 1017.3
20240225104104 57 179 0.0 3.0 0.00 0.00 0.00 87 1017.4
20240225104003 57 188 1.0 3.0 0.00 0.00 0.00 86 1017.5
20240225103903 57 189 1.0 3.0 0.00 0.00 0.00 87 1017.5
20240225103803 57 186 1.0 3.0 0.00 0.00 0.00 86 1017.4
20240225103602 57 183 1.0 4.0 0.00 0.00 0.00 86 1017.4
20240225103502 57 183 1.0 4.0 0.00 0.00 0.00 86 1017.4
20240225103203 57 186 1.0 4.0 0.00 0.00 0.00 86 1017.4
20240225103103 57 186 0.0 4.0 0.00 0.00 0.00 86 1017.4
20240225103003 57 179 0.0 4.0 0.00 0.00 0.00 86 1017.4
20240225102903 57 177 0.0 4.0 0.00 0.00 0.00 86 1017.4
20240225102802 57 189 0.0 4.0 0.00 0.00 0.00 87 1017.4
20240225102703 57 199 0.0 4.0 0.00 0.00 0.00 86 1017.5
20240225102603 57 200 0.0 4.0 0.00 0.00 0.00 85 1017.5
20240225102403 57 196 0.0 4.0 0.00 0.00 0.00 85 1017.5
20240225102202 57 196 0.0 4.0 0.00 0.00 0.00 85 1017.5
20240225102103 57 196 1.0 4.0 0.00 0.00 0.00 85 1017.5
20240225101802 57 194 0.0 4.0 0.00 0.00 0.00 85 1017.5
20240225101703 57 191 0.0 3.0 0.00 0.00 0.00 85 1017.5
20240225101603 57 189 0.0 3.0 0.00 0.00 0.00 85 1017.6
20240225101503 57 190 0.0 3.0 0.00 0.00 0.00 85 1017.6
20240225101303 57 178 0.0 4.0 0.00 0.00 0.00 85 1017.6
20240225101202 57 179 0.0 4.0 0.00 0.00 0.00 85 1017.6
20240225101003 57 177 1.0 4.0 0.00 0.00 0.00 85 1017.6
20240225100903 57 182 1.0 4.0 0.00 0.00 0.00 85 1017.7
20240225100803 57 179 1.0 4.0 0.00 0.00 0.00 85 1017.7
20240225100703 57 179 1.0 4.0 0.00 0.00 0.00 85 1017.7
20240225100502 57 181 1.0 4.0 0.00 0.00 0.00 85 1017.8
20240225100403 57 184 1.0 4.0 0.00 0.00 0.00 85 1017.8
20240225100203 57 188 1.0 5.0 0.00 0.00 0.00 85 1017.9
20240225100002 57 187 1.0 5.0 0.00 0.00 0.00 84 1017.9
20240225095902 57 187 1.0 5.0 0.00 0.00 0.00 84 1017.8
20240225095803 57 190 1.0 5.0 0.00 0.00 0.00 84 1017.9
20240225095703 57 190 1.0 5.0 0.00 0.00 0.00 85 1017.9
20240225095604 57 191 1.0 5.0 0.00 0.00 0.00 85 1017.9
20240225095403 57 193 0.0 5.0 0.00 0.00 0.00 85 1018.0
20240225095306 57 187 0.0 4.0 0.00 0.00 0.00 85 1018.1
20240225095102 57 200 0.0 3.0 0.00 0.00 0.00 85 1018.1
20240225095002 57 201 0.0 3.0 0.00 0.00 0.00 85 1018.1
20240225094902 57 201 1.0 4.0 0.00 0.00 0.00 84 1018.0
20240225094803 57 202 1.0 4.0 0.00 0.00 0.00 84 1018.0
20240225094703 57 202 1.0 4.0 0.00 0.00 0.00 84 1018.0
20240225094603 57 199 1.0 4.0 0.00 0.00 0.00 84 1018.0
20240225094503 57 200 1.0 4.0 0.00 0.00 0.00 85 1018.0
20240225094403 57 200 1.0 4.0 0.00 0.00 0.00 85 1018.0
20240225094203 57 204 1.0 4.0 0.00 0.00 0.00 84 1018.1
20240225094102 57 202 1.0 4.0 0.00 0.00 0.00 84 1018.1
20240225094002 57 202 0.0 4.0 0.00 0.00 0.00 84 1018.2
20240225093903 57 206 0.0 4.0 0.00 0.00 0.00 84 1018.2
20240225093803 57 204 0.0 4.0 0.00 0.00 0.00 84 1018.2
20240225093703 57 204 0.0 4.0 0.00 0.00 0.00 84 1018.2
20240225093603 57 211 0.0 4.0 0.00 0.00 0.00 84 1018.2
20240225093503 57 206 0.0 4.0 0.00 0.00 0.00 84 1018.2
20240225093302 57 206 0.0 4.0 0.00 0.00 0.00 83 1018.2
20240225093203 57 205 0.0 2.0 0.00 0.00 0.00 83 1018.2
20240225093102 57 187 0.0 2.0 0.00 0.00 0.00 83 1018.2
20240225093003 57 182 0.0 2.0 0.00 0.00 0.00 83 1018.2
20240225092903 58 185 0.0 3.0 0.00 0.00 0.00 83 1018.2
20240225092803 58 185 1.0 3.0 0.00 0.00 0.00 84 1018.3
20240225092702 57 185 1.0 3.0 0.00 0.00 0.00 83 1018.3
20240225092602 58 182 0.0 3.0 0.00 0.00 0.00 83 1018.2
20240225092403 58 181 1.0 3.0 0.00 0.00 0.00 82 1018.3
20240225092306 58 184 1.0 3.0 0.00 0.00 0.00 82 1018.2
20240225092203 58 185 1.0 3.0 0.00 0.00 0.00 83 1018.3
20240225092103 58 195 1.0 3.0 0.00 0.00 0.00 83 1018.4
20240225091903 58 198 1.0 3.0 0.00 0.00 0.00 83 1018.4
20240225091802 58 198 1.0 3.0 0.00 0.00 0.00 83 1018.4
20240225091702 58 201 1.0 3.0 0.00 0.00 0.00 82 1018.4
20240225091603 58 201 1.0 3.0 0.00 0.00 0.00 82 1018.4
20240225091503 58 203 1.0 3.0 0.00 0.00 0.00 82 1018.4
20240225091403 58 207 0.0 3.0 0.00 0.00 0.00 82 1018.5
20240225091202 58 208 1.0 2.0 0.00 0.00 0.00 82 1018.4
20240225091102 58 194 1.0 4.0 0.00 0.00 0.00 81 1018.4
20240225091002 58 202 1.0 4.0 0.00 0.00 0.00 82 1018.5
20240225090902 58 195 1.0 4.0 0.00 0.00 0.00 81 1018.4
20240225090803 58 192 1.0 4.0 0.00 0.00 0.00 81 1018.5
20240225090703 58 196 1.0 6.0 0.00 0.00 0.00 81 1018.5
20240225090602 58 196 2.0 7.0 0.00 0.00 0.00 82 1018.4
20240225090403 58 188 2.0 7.0 0.00 0.00 0.00 81 1018.4
20240225090303 58 187 2.0 7.0 0.00 0.00 0.00 81 1018.4
20240225090203 58 187 2.0 7.0 0.00 0.00 0.00 81 1018.4
20240225090103 58 189 2.0 7.0 0.00 0.00 0.00 81 1018.4
20240225090002 58 187 2.0 7.0 0.00 0.00 0.00 81 1018.4
20240225085903 58 188 2.0 7.0 0.00 0.00 0.00 81 1018.3
20240225085803 58 188 2.0 7.0 0.00 0.00 0.00 81 1018.3
20240225085703 58 187 2.0 7.0 0.00 0.00 0.00 81 1018.3
20240225085603 58 186 2.0 6.0 0.00 0.00 0.00 81 1018.3
20240225085503 59 190 2.0 6.0 0.00 0.00 0.00 81 1018.3
20240225085403 58 190 2.0 6.0 0.00 0.00 0.00 81 1018.3
20240225085306 58 191 2.0 6.0 0.00 0.00 0.00 80 1018.2
20240225085202 59 191 2.0 6.0 0.00 0.00 0.00 80 1018.2
20240225085103 59 189 2.0 6.0 0.00 0.00 0.00 80 1018.2
20240225085003 59 187 2.0 7.0 0.00 0.00 0.00 80 1018.1
20240225084903 59 186 2.0 7.0 0.00 0.00 0.00 80 1018.1
20240225084803 59 186 2.0 7.0 0.00 0.00 0.00 80 1018.1
20240225084703 59 184 2.0 7.0 0.00 0.00 0.00 80 1018.1
20240225084603 59 184 2.0 7.0 0.00 0.00 0.00 80 1018.1
20240225084503 59 183 2.0 7.0 0.00 0.00 0.00 80 1018.2
20240225084303 59 185 2.0 7.0 0.00 0.00 0.00 80 1018.1
20240225084202 59 187 2.0 7.0 0.00 0.00 0.00 79 1018.1
20240225084003 59 189 2.0 6.0 0.00 0.00 0.00 79 1018.1
20240225083903 59 187 2.0 6.0 0.00 0.00 0.00 79 1018.2
20240225083803 59 186 2.0 6.0 0.00 0.00 0.00 79 1018.2
20240225083703 59 187 2.0 7.0 0.00 0.00 0.00 79 1018.2
20240225083602 59 187 2.0 7.0 0.00 0.00 0.00 79 1018.3
20240225083503 59 188 3.0 7.0 0.00 0.00 0.00 79 1018.3
20240225083403 59 189 3.0 7.0 0.00 0.00 0.00 78 1018.3
20240225083303 59 188 2.0 7.0 0.00 0.00 0.00 78 1018.4
20240225083202 59 188 2.0 7.0 0.00 0.00 0.00 78 1018.4
20240225083102 59 190 2.0 7.0 0.00 0.00 0.00 78 1018.4
20240225083002 59 190 2.0 7.0 0.00 0.00 0.00 78 1018.5
20240225082903 59 194 2.0 7.0 0.00 0.00 0.00 78 1018.5
20240225082803 59 197 2.0 7.0 0.00 0.00 0.00 78 1018.6
20240225082603 59 197 2.0 7.0 0.00 0.00 0.00 78 1018.6
20240225082403 59 193 3.0 7.0 0.00 0.00 0.00 78 1018.6
20240225082305 59 193 3.0 7.0 0.00 0.00 0.00 78 1018.6
20240225082103 59 192 3.0 8.0 0.00 0.00 0.00 78 1018.6
20240225082004 59 191 3.0 8.0 0.00 0.00 0.00 78 1018.6
20240225081803 59 189 3.0 9.0 0.00 0.00 0.00 77 1018.5
20240225081703 59 189 3.0 10.0 0.00 0.00 0.00 77 1018.5
20240225081603 59 188 3.0 10.0 0.00 0.00 0.00 77 1018.4
20240225081503 59 189 3.0 10.0 0.00 0.00 0.00 77 1018.4
20240225081403 59 190 3.0 10.0 0.00 0.00 0.00 77 1018.3
20240225081303 59 189 3.0 10.0 0.00 0.00 0.00 77 1018.3
20240225081203 59 187 3.0 10.0 0.00 0.00 0.00 77 1018.3
20240225081103 59 185 4.0 10.0 0.00 0.00 0.00 77 1018.4
20240225081003 59 184 4.0 10.0 0.00 0.00 0.00 76 1018.3
20240225080903 59 186 4.0 11.0 0.00 0.00 0.00 76 1018.3
20240225080802 59 186 4.0 11.0 0.00 0.00 0.00 76 1018.4
20240225080703 59 186 4.0 11.0 0.00 0.00 0.00 76 1018.4
20240225080602 60 188 4.0 11.0 0.00 0.00 0.00 76 1018.4
20240225080503 60 188 4.0 11.0 0.00 0.00 0.00 76 1018.5
20240225080403 60 187 4.0 11.0 0.00 0.00 0.00 76 1018.5
20240225080303 60 189 4.0 11.0 0.00 0.00 0.00 76 1018.4
20240225080203 60 189 4.0 11.0 0.00 0.00 0.00 76 1018.4
20240225080104 60 190 4.0 11.0 0.00 0.00 0.00 75 1018.4
20240225075902 60 188 4.0 9.0 0.00 0.00 0.00 75 1018.5
20240225075802 60 187 4.0 9.0 0.00 0.00 0.00 75 1018.5
20240225075703 60 186 4.0 9.0 0.00 0.00 0.00 75 1018.5
20240225075603 60 184 4.0 8.0 0.00 0.00 0.00 75 1018.6
20240225075502 60 183 4.0 8.0 0.00 0.00 0.00 75 1018.6
20240225075403 60 183 4.0 8.0 0.00 0.00 0.00 75 1018.5
20240225075202 60 182 3.0 8.0 0.00 0.00 0.00 75 1018.5
20240225074903 59 177 3.0 8.0 0.00 0.00 0.00 74 1018.5
20240225074603 59 179 2.0 7.0 0.00 0.00 0.00 74 1018.5
20240225074503 60 179 2.0 7.0 0.00 0.00 0.00 74 1018.5
20240225074403 60 176 2.0 7.0 0.00 0.00 0.00 74 1018.5
20240225074303 60 178 2.0 7.0 0.00 0.00 0.00 73 1018.5
20240225074104 60 176 3.0 7.0 0.00 0.00 0.00 73 1018.6
20240225074003 60 176 3.0 7.0 0.00 0.00 0.00 72 1018.6
20240225073903 60 176 3.0 7.0 0.00 0.00 0.00 72 1018.6
20240225073702 60 176 3.0 7.0 0.00 0.00 0.00 72 1018.6
20240225073503 60 178 3.0 6.0 0.00 0.00 0.00 71 1018.6
20240225073303 60 182 3.0 6.0 0.00 0.00 0.00 71 1018.6
20240225073203 60 184 3.0 6.0 0.00 0.00 0.00 71 1018.6
20240225073102 60 186 3.0 6.0 0.00 0.00 0.00 70 1018.6
20240225073002 60 188 3.0 6.0 0.00 0.00 0.00 70 1018.6
20240225072903 60 189 3.0 6.0 0.00 0.00 0.00 70 1018.6
20240225072803 60 190 3.0 9.0 0.00 0.00 0.00 70 1018.7
20240225072703 60 187 3.0 9.0 0.00 0.00 0.00 69 1018.6
20240225072603 60 189 3.0 9.0 0.00 0.00 0.00 69 1018.6
20240225072502 60 188 3.0 9.0 0.00 0.00 0.00 69 1018.7
20240225072203 60 184 3.0 9.0 0.00 0.00 0.00 68 1018.6
20240225072103 60 183 3.0 9.0 0.00 0.00 0.00 68 1018.7
20240225072003 60 184 3.0 9.0 0.00 0.00 0.00 68 1018.7
20240225071903 60 183 3.0 9.0 0.00 0.00 0.00 68 1018.8
20240225071802 60 179 3.0 7.0 0.00 0.00 0.00 68 1018.8
20240225071702 60 182 3.0 9.0 0.00 0.00 0.00 67 1018.8
20240225071503 60 181 3.0 9.0 0.00 0.00 0.00 67 1018.9
20240225071403 60 181 3.0 9.0 0.00 0.00 0.00 67 1018.8
20240225071303 60 181 3.0 9.0 0.00 0.00 0.00 67 1018.8
20240225071203 60 183 3.0 9.0 0.00 0.00 0.00 67 1018.8
20240225071103 60 183 3.0 9.0 0.00 0.00 0.00 67 1018.8
20240225071003 60 183 3.0 9.0 0.00 0.00 0.00 67 1018.7
20240225070803 60 184 3.0 9.0 0.00 0.00 0.00 66 1018.8
20240225070704 60 184 3.0 9.0 0.00 0.00 0.00 66 1018.8
20240225070603 60 183 3.0 9.0 0.00 0.00 0.00 66 1018.8
20240225070502 60 181 3.0 9.0 0.00 0.00 0.00 66 1018.8
20240225070403 60 182 3.0 9.0 0.00 0.00 0.00 65 1018.8
20240225070202 60 176 3.0 7.0 0.00 0.00 0.00 65 1018.8
20240225070103 60 177 3.0 8.0 0.00 0.00 0.00 65 1018.8
20240225070003 60 177 3.0 8.0 0.00 0.00 0.00 64 1018.7
20240225065902 60 174 3.0 8.0 0.00 0.00 0.00 64 1018.7
20240225065803 60 175 3.0 8.0 0.00 0.00 0.00 64 1018.7
20240225065703 60 173 4.0 8.0 0.00 0.00 0.00 64 1018.7
20240225065603 60 172 3.0 8.0 0.00 0.00 0.00 64 1018.7
20240225065503 60 172 3.0 8.0 0.00 0.00 0.00 64 1018.7
20240225065306 60 169 3.0 8.0 0.00 0.00 0.00 63 1018.6
20240225065204 60 170 3.0 8.0 0.00 0.00 0.00 62 1018.7
20240225065103 60 169 3.0 7.0 0.00 0.00 0.00 62 1018.6
20240225065002 60 167 3.0 7.0 0.00 0.00 0.00 62 1018.7
20240225064902 60 171 3.0 7.0 0.00 0.00 0.00 62 1018.7
20240225064802 60 171 3.0 7.0 0.00 0.00 0.00 61 1018.7
20240225064702 60 173 2.0 7.0 0.00 0.00 0.00 61 1018.8
20240225064603 60 174 3.0 7.0 0.00 0.00 0.00 61 1018.8
20240225064503 60 173 2.0 7.0 0.00 0.00 0.00 61 1018.8
20240225064403 60 174 2.0 7.0 0.00 0.00 0.00 60 1018.7
20240225064304 60 172 2.0 5.0 0.00 0.00 0.00 60 1018.8
20240225064103 60 174 2.0 7.0 0.00 0.00 0.00 59 1018.8
20240225063902 60 175 2.0 7.0 0.00 0.00 0.00 59 1018.8
20240225063803 60 176 3.0 7.0 0.00 0.00 0.00 58 1018.9
20240225063703 60 175 3.0 7.0 0.00 0.00 0.00 58 1018.8
20240225063503 60 174 3.0 7.0 0.00 0.00 0.00 58 1018.8
20240225063402 60 175 3.0 7.0 0.00 0.00 0.00 57 1018.9
20240225063303 60 176 3.0 7.0 0.00 0.00 0.00 57 1018.9
20240225063204 60 171 3.0 6.0 0.00 0.00 0.00 57 1018.9
20240225063103 60 172 3.0 7.0 0.00 0.00 0.00 57 1019.0
20240225063003 60 170 3.0 7.0 0.00 0.00 0.00 57 1018.9
20240225062902 60 169 3.0 7.0 0.00 0.00 0.00 56 1019.0
20240225062803 60 167 3.0 7.0 0.00 0.00 0.00 56 1019.0
20240225062702 60 168 3.0 7.0 0.00 0.00 0.00 55 1019.0
20240225062503 61 168 3.0 7.0 0.00 0.00 0.00 55 1019.0
20240225061903 61 186 3.0 8.0 0.00 0.00 0.00 54 1019.0
20240225061703 61 186 2.0 8.0 0.00 0.00 0.00 53 1019.0
20240225061603 61 188 3.0 8.0 0.00 0.00 0.00 53 1019.0
20240225061503 61 188 3.0 8.0 0.00 0.00 0.00 53 1019.0
20240225061404 61 186 3.0 8.0 0.00 0.00 0.00 53 1019.0
20240225061303 61 184 3.0 8.0 0.00 0.00 0.00 53 1019.0
20240225061203 61 186 3.0 8.0 0.00 0.00 0.00 53 1019.0
20240225061104 61 187 3.0 8.0 0.00 0.00 0.00 52 1019.0
20240225061003 61 187 2.0 8.0 0.00 0.00 0.00 52 1019.1
20240225060903 61 181 2.0 6.0 0.00 0.00 0.00 52 1019.1
20240225060803 61 181 3.0 6.0 0.00 0.00 0.00 52 1019.1
20240225060702 61 181 3.0 7.0 0.00 0.00 0.00 52 1019.1
20240225060603 61 179 3.0 7.0 0.00 0.00 0.00 51 1019.1
20240225060503 61 177 3.0 7.0 0.00 0.00 0.00 51 1019.0
20240225060404 61 178 3.0 7.0 0.00 0.00 0.00 51 1019.1
20240225060303 61 174 3.0 11.0 0.00 0.00 0.00 51 1019.0
20240225060203 61 171 3.0 11.0 0.00 0.00 0.00 51 1019.0
20240225060103 61 168 3.0 11.0 0.00 0.00 0.00 51 1019.0
20240225055903 61 169 4.0 11.0 0.00 0.00 0.00 50 1018.9
20240225055802 61 167 3.0 11.0 0.00 0.00 0.00 50 1018.9
20240225055702 61 166 4.0 11.0 0.00 0.00 0.00 50 1018.9
20240225055603 61 167 4.0 11.0 0.00 0.00 0.00 50 1018.9
20240225055503 61 166 4.0 11.0 0.00 0.00 0.00 50 1018.9
20240225055305 61 167 4.0 12.0 0.00 0.00 0.00 50 1018.9
20240225055202 61 169 4.0 12.0 0.00 0.00 0.00 50 1018.9
20240225055104 61 169 4.0 12.0 0.00 0.00 0.00 50 1018.9
20240225055003 61 169 4.0 12.0 0.00 0.00 0.00 50 1018.8
20240225054903 61 167 4.0 12.0 0.00 0.00 0.00 49 1018.8
20240225054803 61 168 4.0 12.0 0.00 0.00 0.00 49 1018.9
20240225054704 61 167 4.0 12.0 0.00 0.00 0.00 49 1018.9
20240225054303 61 168 3.0 7.0 0.00 0.00 0.00 49 1019.0
20240225054203 61 167 3.0 7.0 0.00 0.00 0.00 49 1019.0
20240225054103 61 170 3.0 7.0 0.00 0.00 0.00 49 1019.1
20240225054004 61 170 3.0 8.0 0.00 0.00 0.00 49 1019.1
20240225053903 61 174 3.0 8.0 0.00 0.00 0.00 49 1019.1
20240225053803 61 175 3.0 8.0 0.00 0.00 0.00 49 1019.1
20240225053603 61 175 3.0 8.0 0.00 0.00 0.00 49 1019.2
20240225053503 61 177 3.0 8.0 0.00 0.00 0.00 49 1019.2
20240225053303 61 182 3.0 8.0 0.00 0.00 0.00 49 1019.3
20240225053203 61 182 3.0 8.0 0.00 0.00 0.00 49 1019.2
20240225053104 61 179 2.0 8.0 0.00 0.00 0.00 49 1019.2
20240225053003 61 182 2.0 7.0 0.00 0.00 0.00 49 1019.2
20240225052904 61 178 2.0 7.0 0.00 0.00 0.00 49 1019.3
20240225052803 61 178 2.0 7.0 0.00 0.00 0.00 49 1019.2
20240225052503 61 178 2.0 7.0 0.00 0.00 0.00 49 1019.3
20240225052403 61 178 2.0 7.0 0.00 0.00 0.00 49 1019.3
20240225052305 61 175 2.0 6.0 0.00 0.00 0.00 49 1019.3
20240225052203 61 173 2.0 6.0 0.00 0.00 0.00 49 1019.3
20240225052103 61 174 2.0 6.0 0.00 0.00 0.00 49 1019.3
20240225052003 61 173 2.0 7.0 0.00 0.00 0.00 49 1019.3
20240225051903 61 174 2.0 7.0 0.00 0.00 0.00 49 1019.2
20240225051803 62 174 2.0 7.0 0.00 0.00 0.00 49 1019.3
20240225051703 61 177 3.0 7.0 0.00 0.00 0.00 49 1019.2
20240225051602 61 177 3.0 7.0 0.00 0.00 0.00 49 1019.3
20240225051503 61 173 3.0 7.0 0.00 0.00 0.00 49 1019.2
20240225051403 62 172 3.0 7.0 0.00 0.00 0.00 49 1019.3
20240225051303 62 172 3.0 7.0 0.00 0.00 0.00 49 1019.3
20240225051203 62 174 3.0 7.0 0.00 0.00 0.00 48 1019.3
20240225051002 62 174 3.0 9.0 0.00 0.00 0.00 48 1019.3
20240225050703 62 171 3.0 9.0 0.00 0.00 0.00 48 1019.3
20240225050602 62 172 3.0 9.0 0.00 0.00 0.00 48 1019.3
20240225050504 62 172 3.0 9.0 0.00 0.00 0.00 48 1019.3
20240225050403 62 173 3.0 9.0 0.00 0.00 0.00 48 1019.3
20240225050303 62 173 3.0 9.0 0.00 0.00 0.00 48 1019.3
20240225050103 62 173 3.0 9.0 0.00 0.00 0.00 47 1019.3
20240225050003 62 171 3.0 8.0 0.00 0.00 0.00 48 1019.3
20240225045903 62 173 3.0 8.0 0.00 0.00 0.00 47 1019.2
20240225045803 62 173 3.0 8.0 0.00 0.00 0.00 47 1019.3
20240225045702 62 175 3.0 8.0 0.00 0.00 0.00 47 1019.3
20240225045603 62 174 3.0 8.0 0.00 0.00 0.00 47 1019.2
20240225045403 62 174 3.0 8.0 0.00 0.00 0.00 47 1019.2
20240225045203 62 175 3.0 7.0 0.00 0.00 0.00 46 1019.3
20240225045103 62 177 3.0 7.0 0.00 0.00 0.00 46 1019.4
20240225045003 62 177 3.0 7.0 0.00 0.00 0.00 46 1019.4
20240225044903 62 177 3.0 7.0 0.00 0.00 0.00 46 1019.4
20240225044804 62 178 3.0 7.0 0.00 0.00 0.00 46 1019.3
20240225044702 62 175 3.0 7.0 0.00 0.00 0.00 46 1019.4
20240225044503 62 174 3.0 7.0 0.00 0.00 0.00 46 1019.3
20240225044403 62 173 3.0 7.0 0.00 0.00 0.00 46 1019.3
20240225044202 62 174 3.0 7.0 0.00 0.00 0.00 46 1019.4
20240225044003 62 170 3.0 8.0 0.00 0.00 0.00 45 1019.3
20240225043703 62 166 3.0 8.0 0.00 0.00 0.00 45 1019.4
20240225043604 62 166 3.0 8.0 0.00 0.00 0.00 44 1019.4
20240225043503 62 166 3.0 10.0 0.00 0.00 0.00 44 1019.4
20240225043403 62 165 3.0 10.0 0.00 0.00 0.00 44 1019.4
20240225043303 62 168 3.0 10.0 0.00 0.00 0.00 44 1019.4
20240225043202 63 168 3.0 10.0 0.00 0.00 0.00 44 1019.4
20240225043103 63 169 3.0 10.0 0.00 0.00 0.00 44 1019.5
20240225043003 63 170 4.0 10.0 0.00 0.00 0.00 44 1019.4
20240225042903 63 168 4.0 10.0 0.00 0.00 0.00 44 1019.4
20240225042803 63 169 4.0 10.0 0.00 0.00 0.00 44 1019.4
20240225042703 63 170 4.0 10.0 0.00 0.00 0.00 43 1019.4
20240225042604 63 170 4.0 10.0 0.00 0.00 0.00 43 1019.4
20240225042502 63 170 4.0 10.0 0.00 0.00 0.00 43 1019.4
20240225042403 63 172 4.0 10.0 0.00 0.00 0.00 43 1019.5
20240225042307 63 172 5.0 10.0 0.00 0.00 0.00 43 1019.4
20240225042203 63 171 5.0 12.0 0.00 0.00 0.00 43 1019.4
20240225042103 63 172 5.0 12.0 0.00 0.00 0.00 43 1019.4
20240225042003 63 172 5.0 12.0 0.00 0.00 0.00 43 1019.4
20240225041803 63 173 5.0 12.0 0.00 0.00 0.00 42 1019.4
20240225041703 64 171 5.0 12.0 0.00 0.00 0.00 42 1019.4
20240225041603 64 173 5.0 12.0 0.00 0.00 0.00 42 1019.4
20240225041502 64 173 5.0 12.0 0.00 0.00 0.00 42 1019.5
20240225041403 64 171 5.0 12.0 0.00 0.00 0.00 42 1019.5
20240225041303 64 172 5.0 12.0 0.00 0.00 0.00 42 1019.5
20240225041203 64 171 5.0 12.0 0.00 0.00 0.00 42 1019.5
20240225041003 64 168 6.0 12.0 0.00 0.00 0.00 41 1019.5
20240225040803 64 167 5.0 12.0 0.00 0.00 0.00 41 1019.5
20240225040703 64 168 5.0 11.0 0.00 0.00 0.00 41 1019.5
20240225040602 64 167 5.0 11.0 0.00 0.00 0.00 41 1019.4
20240225040503 64 168 5.0 11.0 0.00 0.00 0.00 41 1019.5
20240225040403 64 169 5.0 11.0 0.00 0.00 0.00 41 1019.5
20240225040303 64 166 5.0 11.0 0.00 0.00 0.00 41 1019.4
20240225040204 64 165 5.0 11.0 0.00 0.00 0.00 41 1019.5
20240225040104 64 164 5.0 11.0 0.00 0.00 0.00 41 1019.5
20240225035903 64 166 5.0 9.0 0.00 0.00 0.00 41 1019.5
20240225035803 64 167 5.0 9.0 0.00 0.00 0.00 41 1019.5
20240225035703 64 167 5.0 9.0 0.00 0.00 0.00 41 1019.5
20240225035602 64 167 5.0 9.0 0.00 0.00 0.00 41 1019.5
20240225035503 64 164 5.0 9.0 0.00 0.00 0.00 40 1019.5
20240225035403 64 164 5.0 9.0 0.00 0.00 0.00 40 1019.4
20240225035306 64 164 5.0 9.0 0.00 0.00 0.00 41 1019.4
20240225035203 64 166 5.0 9.0 0.00 0.00 0.00 41 1019.5
20240225035104 64 166 5.0 9.0 0.00 0.00 0.00 40 1019.4
20240225035003 64 166 5.0 9.0 0.00 0.00 0.00 40 1019.4
20240225034803 64 164 5.0 9.0 0.00 0.00 0.00 40 1019.5
20240225034703 65 165 5.0 9.0 0.00 0.00 0.00 40 1019.4
20240225034503 65 164 5.0 9.0 0.00 0.00 0.00 40 1019.4
20240225034402 65 166 5.0 9.0 0.00 0.00 0.00 40 1019.5
20240225034203 65 169 5.0 10.0 0.00 0.00 0.00 39 1019.4
20240225034103 65 171 5.0 10.0 0.00 0.00 0.00 40 1019.5
20240225034003 65 171 5.0 10.0 0.00 0.00 0.00 40 1019.5
20240225033903 65 172 5.0 10.0 0.00 0.00 0.00 39 1019.5
20240225033803 65 175 5.0 10.0 0.00 0.00 0.00 39 1019.5
20240225033702 65 176 5.0 10.0 0.00 0.00 0.00 39 1019.5
20240225033603 65 178 5.0 10.0 0.00 0.00 0.00 39 1019.5
20240225033503 65 179 4.0 10.0 0.00 0.00 0.00 39 1019.5
20240225033403 65 176 5.0 10.0 0.00 0.00 0.00 39 1019.5
20240225033304 65 175 4.0 10.0 0.00 0.00 0.00 39 1019.4
20240225033204 65 172 4.0 11.0 0.00 0.00 0.00 39 1019.4
20240225033104 65 171 4.0 11.0 0.00 0.00 0.00 39 1019.4
20240225033003 65 172 4.0 11.0 0.00 0.00 0.00 39 1019.4
20240225032903 65 172 5.0 11.0 0.00 0.00 0.00 39 1019.4
20240225032803 65 169 5.0 11.0 0.00 0.00 0.00 39 1019.4
20240225032703 65 169 5.0 11.0 0.00 0.00 0.00 39 1019.5
20240225032603 65 168 5.0 11.0 0.00 0.00 0.00 39 1019.4
20240225032504 65 167 5.0 11.0 0.00 0.00 0.00 38 1019.3
20240225032403 66 170 5.0 11.0 0.00 0.00 0.00 38 1019.3
20240225032203 66 173 4.0 11.0 0.00 0.00 0.00 38 1019.3
20240225032103 66 172 4.0 11.0 0.00 0.00 0.00 38 1019.3
20240225032003 66 171 4.0 11.0 0.00 0.00 0.00 38 1019.3
20240225031903 66 170 4.0 11.0 0.00 0.00 0.00 38 1019.2
20240225031702 66 168 4.0 11.0 0.00 0.00 0.00 38 1019.3
20240225031603 66 169 4.0 11.0 0.00 0.00 0.00 38 1019.3
20240225031503 66 169 4.0 11.0 0.00 0.00 0.00 38 1019.2
20240225031403 66 166 3.0 11.0 0.00 0.00 0.00 38 1019.3
20240225031303 66 161 3.0 11.0 0.00 0.00 0.00 38 1019.3
20240225031203 66 161 3.0 10.0 0.00 0.00 0.00 38 1019.3
20240225031103 66 160 3.0 10.0 0.00 0.00 0.00 37 1019.2
20240225031003 66 159 3.0 10.0 0.00 0.00 0.00 37 1019.2
20240225030902 66 157 4.0 10.0 0.00 0.00 0.00 37 1019.1
20240225030803 66 160 4.0 10.0 0.00 0.00 0.00 37 1019.1
20240225030703 66 159 4.0 10.0 0.00 0.00 0.00 37 1019.1
20240225030603 66 158 4.0 10.0 0.00 0.00 0.00 37 1019.2
20240225030503 66 157 4.0 9.0 0.00 0.00 0.00 37 1019.2
20240225030403 66 158 4.0 9.0 0.00 0.00 0.00 37 1019.1
20240225030303 66 159 4.0 9.0 0.00 0.00 0.00 36 1019.2
20240225030203 66 159 4.0 9.0 0.00 0.00 0.00 36 1019.1
20240225030104 66 161 4.0 9.0 0.00 0.00 0.00 36 1019.0
20240225030003 67 161 4.0 9.0 0.00 0.00 0.00 36 1019.0
20240225025904 67 163 4.0 8.0 0.00 0.00 0.00 36 1019.0
20240225025403 67 167 5.0 13.0 0.00 0.00 0.00 35 1019.0
20240225025305 67 169 6.0 13.0 0.00 0.00 0.00 35 1018.9
20240225025202 67 167 6.0 15.0 0.00 0.00 0.00 35 1018.9
20240225025103 67 165 6.0 15.0 0.00 0.00 0.00 35 1018.9
20240225024803 67 165 5.0 15.0 0.00 0.00 0.00 35 1018.9
20240225024703 67 166 5.0 15.0 0.00 0.00 0.00 35 1018.9
20240225024402 67 167 5.0 15.0 0.00 0.00 0.00 35 1018.9
20240225024303 67 164 4.0 15.0 0.00 0.00 0.00 35 1018.9
20240225024203 67 168 4.0 12.0 0.00 0.00 0.00 36 1018.9
20240225024103 68 169 4.0 12.0 0.00 0.00 0.00 35 1018.9
20240225024002 68 168 5.0 12.0 0.00 0.00 0.00 35 1019.0
20240225023902 68 168 5.0 12.0 0.00 0.00 0.00 35 1018.9
20240225023703 68 169 5.0 12.0 0.00 0.00 0.00 35 1018.9
20240225023603 68 170 5.0 10.0 0.00 0.00 0.00 35 1018.9
20240225023503 68 168 5.0 10.0 0.00 0.00 0.00 35 1018.9
20240225023403 68 170 5.0 10.0 0.00 0.00 0.00 35 1018.8
20240225023303 68 170 4.0 10.0 0.00 0.00 0.00 35 1018.9
20240225023202 68 170 4.0 10.0 0.00 0.00 0.00 36 1018.8
20240225023003 68 171 4.0 10.0 0.00 0.00 0.00 36 1018.8
20240225022903 68 171 4.0 10.0 0.00 0.00 0.00 36 1018.7
20240225022704 68 167 4.0 10.0 0.00 0.00 0.00 36 1018.7
20240225022603 68 167 4.0 10.0 0.00 0.00 0.00 36 1018.7
20240225022504 68 168 4.0 10.0 0.00 0.00 0.00 36 1018.7
20240225022306 68 163 5.0 10.0 0.00 0.00 0.00 36 1018.7
20240225022203 68 162 5.0 12.0 0.00 0.00 0.00 36 1018.7
20240225022102 68 162 5.0 12.0 0.00 0.00 0.00 36 1018.7
20240225022003 68 160 5.0 12.0 0.00 0.00 0.00 36 1018.7
20240225021903 68 160 5.0 12.0 0.00 0.00 0.00 36 1018.7
20240225021804 68 162 4.0 12.0 0.00 0.00 0.00 36 1018.7
20240225021704 68 161 4.0 12.0 0.00 0.00 0.00 36 1018.6
20240225021603 68 160 4.0 12.0 0.00 0.00 0.00 36 1018.6
20240225021403 68 160 4.0 12.0 0.00 0.00 0.00 36 1018.6
20240225021303 68 161 4.0 12.0 0.00 0.00 0.00 35 1018.6
20240225021103 68 161 4.0 9.0 0.00 0.00 0.00 35 1018.6
20240225021003 68 159 4.0 9.0 0.00 0.00 0.00 35 1018.5
20240225020904 69 159 4.0 9.0 0.00 0.00 0.00 35 1018.5
20240225020703 69 162 4.0 9.0 0.00 0.00 0.00 35 1018.6
20240225020603 69 162 5.0 9.0 0.00 0.00 0.00 34 1018.5
20240225020504 69 162 5.0 9.0 0.00 0.00 0.00 34 1018.5
20240225020403 69 162 5.0 9.0 0.00 0.00 0.00 34 1018.5
20240225020303 69 161 5.0 9.0 0.00 0.00 0.00 34 1018.4
20240225020203 69 162 4.0 9.0 0.00 0.00 0.00 34 1018.4
20240225015903 69 163 4.0 9.0 0.00 0.00 0.00 33 1018.3
20240225015703 70 160 3.0 8.0 0.00 0.00 0.00 33 1018.3
20240225015603 70 160 4.0 8.0 0.00 0.00 0.00 33 1018.2
20240225015503 70 159 3.0 9.0 0.00 0.00 0.00 32 1018.2
20240225015403 70 160 3.0 9.0 0.00 0.00 0.00 33 1018.2
20240225015307 70 161 3.0 9.0 0.00 0.00 0.00 32 1018.2
20240225015204 70 161 3.0 9.0 0.00 0.00 0.00 32 1018.2
20240225015103 70 163 3.0 9.0 0.00 0.00 0.00 32 1018.2
20240225015004 70 166 3.0 9.0 0.00 0.00 0.00 32 1018.1
20240225014802 70 169 3.0 9.0 0.00 0.00 0.00 32 1018.2
20240225014702 70 167 3.0 9.0 0.00 0.00 0.00 32 1018.1
20240225014603 70 168 3.0 9.0 0.00 0.00 0.00 31 1018.2
20240225014403 71 167 3.0 7.0 0.00 0.00 0.00 31 1018.2
20240225014203 71 165 4.0 7.0 0.00 0.00 0.00 31 1018.3
20240225014103 71 165 3.0 7.0 0.00 0.00 0.00 31 1018.3
20240225014003 71 164 3.0 7.0 0.00 0.00 0.00 31 1018.2
20240225013903 71 166 3.0 7.0 0.00 0.00 0.00 30 1018.2
20240225013803 71 164 3.0 8.0 0.00 0.00 0.00 30 1018.3
20240225013503 71 163 3.0 8.0 0.00 0.00 0.00 30 1018.2
20240225013303 71 165 3.0 8.0 0.00 0.00 0.00 30 1018.3
20240225013203 71 165 3.0 8.0 0.00 0.00 0.00 30 1018.2
20240225013102 71 166 2.0 8.0 0.00 0.00 0.00 30 1018.3
20240225013003 71 165 2.0 8.0 0.00 0.00 0.00 30 1018.3
20240225012903 71 163 2.0 8.0 0.00 0.00 0.00 30 1018.3
20240225012803 71 163 2.0 8.0 0.00 0.00 0.00 30 1018.3
20240225012703 71 164 2.0 8.0 0.00 0.00 0.00 30 1018.3
20240225012603 71 167 1.0 7.0 0.00 0.00 0.00 30 1018.2
20240225012503 71 169 1.0 5.0 0.00 0.00 0.00 30 1018.2
20240225012403 71 170 1.0 5.0 0.00 0.00 0.00 30 1018.2
20240225012305 71 169 1.0 5.0 0.00 0.00 0.00 30 1018.2
20240225012203 71 168 2.0 5.0 0.00 0.00 0.00 30 1018.2
20240225012103 71 166 2.0 5.0 0.00 0.00 0.00 29 1018.2
20240225012003 71 166 2.0 5.0 0.00 0.00 0.00 29 1018.2
20240225011903 71 166 2.0 5.0 0.00 0.00 0.00 29 1018.2
20240225011803 72 166 2.0 5.0 0.00 0.00 0.00 29 1018.3
20240225011703 72 166 2.0 5.0 0.00 0.00 0.00 29 1018.2
20240225011604 72 166 2.0 5.0 0.00 0.00 0.00 29 1018.3
20240225011403 72 165 2.0 5.0 0.00 0.00 0.00 29 1018.2
20240225011303 72 166 2.0 4.0 0.00 0.00 0.00 29 1018.2
20240225011103 72 167 2.0 5.0 0.00 0.00 0.00 29 1018.2
20240225011003 72 167 2.0 5.0 0.00 0.00 0.00 29 1018.2
20240225010903 72 167 2.0 5.0 0.00 0.00 0.00 28 1018.2
20240225010803 72 168 2.0 5.0 0.00 0.00 0.00 28 1018.2
20240225010603 72 169 2.0 6.0 0.00 0.00 0.00 28 1018.2
20240225010504 72 169 2.0 6.0 0.00 0.00 0.00 28 1018.3
20240225010403 72 167 2.0 6.0 0.00 0.00 0.00 28 1018.3
20240225010103 73 168 2.0 6.0 0.00 0.00 0.00 28 1018.4
20240225010004 73 167 2.0 6.0 0.00 0.00 0.00 27 1018.4
20240225005903 73 169 2.0 6.0 0.00 0.00 0.00 27 1018.4
20240225005803 73 168 2.0 6.0 0.00 0.00 0.00 27 1018.4
20240225005703 73 166 2.0 6.0 0.00 0.00 0.00 27 1018.4
20240225005603 73 165 2.0 6.0 0.00 0.00 0.00 27 1018.4
20240225005504 73 165 2.0 5.0 0.00 0.00 0.00 27 1018.4
20240225005306 73 166 2.0 5.0 0.00 0.00 0.00 27 1018.3
20240225005003 73 167 2.0 5.0 0.00 0.00 0.00 27 1018.3
20240225004802 73 166 2.0 5.0 0.00 0.00 0.00 27 1018.2
20240225004603 73 168 2.0 5.0 0.00 0.00 0.00 27 1018.3
20240225004503 73 169 2.0 5.0 0.00 0.00 0.00 26 1018.2
20240225004403 73 168 2.0 5.0 0.00 0.00 0.00 27 1018.3
20240225004303 73 167 2.0 5.0 0.00 0.00 0.00 26 1018.2
20240225004202 74 167 2.0 8.0 0.00 0.00 0.00 26 1018.2
20240225004103 74 167 2.0 8.0 0.00 0.00 0.00 26 1018.3
20240225004003 74 167 2.0 8.0 0.00 0.00 0.00 26 1018.3
20240225003903 74 170 2.0 8.0 0.00 0.00 0.00 26 1018.3
20240225003703 74 171 2.0 8.0 0.00 0.00 0.00 26 1018.4
20240225003603 74 171 2.0 8.0 0.00 0.00 0.00 26 1018.4
20240225003503 74 171 2.0 8.0 0.00 0.00 0.00 26 1018.4
20240225003403 74 173 2.0 8.0 0.00 0.00 0.00 26 1018.4
20240225003303 74 175 2.0 8.0 0.00 0.00 0.00 26 1018.4
20240225003204 74 176 2.0 8.0 0.00 0.00 0.00 26 1018.4
20240225003003 74 177 3.0 8.0 0.00 0.00 0.00 26 1018.2
20240225002704 74 179 3.0 9.0 0.00 0.00 0.00 26 1018.3
20240225002604 74 181 3.0 9.0 0.00 0.00 0.00 26 1018.3
20240225002403 75 183 3.0 9.0 0.00 0.00 0.00 25 1018.4
20240225002306 75 184 3.0 9.0 0.00 0.00 0.00 25 1018.4
20240225002102 75 182 3.0 9.0 0.00 0.00 0.00 25 1018.4
20240225002003 75 181 4.0 9.0 0.00 0.00 0.00 25 1018.4
20240225001803 75 182 3.0 9.0 0.00 0.00 0.00 25 1018.4
20240225001703 75 176 4.0 9.0 0.00 0.00 0.00 25 1018.4
20240225001603 75 176 4.0 9.0 0.00 0.00 0.00 25 1018.4
20240225001503 75 175 4.0 9.0 0.00 0.00 0.00 25 1018.4
20240225001403 75 172 4.0 9.0 0.00 0.00 0.00 25 1018.4
20240225001304 75 168 4.0 10.0 0.00 0.00 0.00 25 1018.4
20240225001203 75 167 4.0 10.0 0.00 0.00 0.00 25 1018.4
20240225001103 75 167 4.0 10.0 0.00 0.00 0.00 25 1018.4
20240225000902 75 167 4.0 10.0 0.00 0.00 0.00 25 1018.4
20240225000803 75 166 3.0 10.0 0.00 0.00 0.00 25 1018.4
20240225000603 75 166 3.0 10.0 0.00 0.00 0.00 25 1018.3
20240225000403 75 166 3.0 10.0 0.00 0.00 0.00 25 1018.2
20240225000303 75 170 3.0 7.0 0.00 0.00 0.00 25 1018.3
20240225000204 76 169 4.0 8.0 0.00 0.00 0.00 25 1018.3
20240225000103 76 172 4.0 9.0 0.00 0.00 0.00 25 1018.2
20240225000004 76 172 5.0 9.0 0.00 0.00 0.00 25 1018.2
20240224235902 76 173 5.0 12.0 0.00 0.00 0.00 25 1018.3
20240224235703 76 171 5.0 12.0 0.00 0.00 0.00 25 1018.2
20240224235603 76 173 5.0 12.0 0.00 0.00 0.00 24 1018.2
20240224235503 76 174 5.0 12.0 0.00 0.00 0.00 24 1018.2
20240224235103 76 168 5.0 12.0 0.00 0.00 0.00 25 1018.2
20240224235002 76 168 5.0 12.0 0.00 0.00 0.00 25 1018.3
20240224234703 76 168 5.0 11.0 0.00 0.00 0.00 25 1018.3
20240224234603 76 165 5.0 11.0 0.00 0.00 0.00 25 1018.3
20240224234503 76 164 5.0 11.0 0.00 0.00 0.00 25 1018.2
20240224234403 76 161 6.0 11.0 0.00 0.00 0.00 25 1018.2
20240224234304 76 160 5.0 12.0 0.00 0.00 0.00 25 1018.2
20240224234203 76 160 5.0 12.0 0.00 0.00 0.00 25 1018.2
20240224234103 76 161 4.0 12.0 0.00 0.00 0.00 24 1018.2
20240224234003 76 162 4.0 12.0 0.00 0.00 0.00 25 1018.2
20240224233903 76 161 4.0 12.0 0.00 0.00 0.00 25 1018.2
20240224233803 76 160 4.0 12.0 0.00 0.00 0.00 25 1018.2
20240224233703 76 161 4.0 12.0 0.00 0.00 0.00 25 1018.2
20240224233603 76 164 4.0 12.0 0.00 0.00 0.00 24 1018.2
20240224233503 77 167 3.0 12.0 0.00 0.00 0.00 24 1018.2
20240224233303 77 182 3.0 7.0 0.00 0.00 0.00 25 1018.2
20240224233104 77 179 4.0 7.0 0.00 0.00 0.00 25 1018.1
20240224233003 77 177 4.0 7.0 0.00 0.00 0.00 25 1018.2
20240224232903 77 175 4.0 7.0 0.00 0.00 0.00 25 1018.1
20240224232803 77 179 4.0 10.0 0.00 0.00 0.00 25 1018.2
20240224232704 77 184 4.0 10.0 0.00 0.00 0.00 25 1018.2
20240224232603 77 185 4.0 10.0 0.00 0.00 0.00 26 1018.2
20240224232306 77 185 4.0 10.0 0.00 0.00 0.00 26 1018.3
20240224232103 77 185 4.0 10.0 0.00 0.00 0.00 26 1018.3
20240224232003 77 184 4.0 10.0 0.00 0.00 0.00 26 1018.2
20240224231903 77 183 4.0 10.0 0.00 0.00 0.00 26 1018.2
20240224231803 77 181 4.0 10.0 0.00 0.00 0.00 26 1018.3
20240224231703 77 178 4.0 10.0 0.00 0.00 0.00 25 1018.3
20240224231603 77 175 5.0 10.0 0.00 0.00 0.00 26 1018.3
20240224231403 77 175 5.0 10.0 0.00 0.00 0.00 25 1018.4
20240224231303 77 176 5.0 10.0 0.00 0.00 0.00 25 1018.4
20240224231203 77 177 5.0 10.0 0.00 0.00 0.00 25 1018.4
20240224231103 77 176 5.0 10.0 0.00 0.00 0.00 25 1018.4
20240224231003 77 175 4.0 10.0 0.00 0.00 0.00 25 1018.4
20240224230903 77 177 4.0 9.0 0.00 0.00 0.00 25 1018.4
20240224230803 77 177 4.0 9.0 0.00 0.00 0.00 25 1018.4
20240224230704 77 178 4.0 9.0 0.00 0.00 0.00 25 1018.4
20240224230603 77 179 4.0 9.0 0.00 0.00 0.00 26 1018.4
20240224230505 77 176 4.0 10.0 0.00 0.00 0.00 26 1018.4
20240224230403 77 172 5.0 10.0 0.00 0.00 0.00 25 1018.4
20240224230303 77 167 5.0 10.0 0.00 0.00 0.00 25 1018.4
20240224230203 77 166 5.0 13.0 0.00 0.00 0.00 25 1018.4
20240224230103 77 166 5.0 13.0 0.00 0.00 0.00 25 1018.4
20240224225903 77 163 6.0 13.0 0.00 0.00 0.00 25 1018.4
20240224225803 77 161 6.0 13.0 0.00 0.00 0.00 25 1018.5
20240224225703 77 163 6.0 13.0 0.00 0.00 0.00 26 1018.5
20240224225503 77 166 6.0 13.0 0.00 0.00 0.00 25 1018.6
20240224225403 77 169 6.0 13.0 0.00 0.00 0.00 25 1018.6
20240224225305 77 169 6.0 13.0 0.00 0.00 0.00 26 1018.6
20240224225103 77 172 6.0 13.0 0.00 0.00 0.00 25 1018.6
20240224225003 77 176 6.0 13.0 0.00 0.00 0.00 25 1018.6
20240224224903 77 183 6.0 12.0 0.00 0.00 0.00 25 1018.6
20240224224803 77 188 6.0 12.0 0.00 0.00 0.00 25 1018.6
20240224224602 77 187 5.0 12.0 0.00 0.00 0.00 25 1018.7
20240224224503 77 185 5.0 11.0 0.00 0.00 0.00 26 1018.7
20240224224404 77 182 4.0 11.0 0.00 0.00 0.00 26 1018.7
20240224224303 77 185 4.0 10.0 0.00 0.00 0.00 26 1018.7
20240224224203 77 183 5.0 10.0 0.00 0.00 0.00 25 1018.6
20240224224103 77 186 5.0 10.0 0.00 0.00 0.00 25 1018.6
20240224224003 77 179 5.0 11.0 0.00 0.00 0.00 25 1018.6
20240224223903 77 178 5.0 11.0 0.00 0.00 0.00 25 1018.6
20240224223703 77 176 5.0 11.0 0.00 0.00 0.00 27 1018.6
20240224223603 77 175 5.0 11.0 0.00 0.00 0.00 27 1018.6
20240224223503 77 182 5.0 11.0 0.00 0.00 0.00 26 1018.6
20240224223403 77 184 5.0 11.0 0.00 0.00 0.00 26 1018.5
20240224223303 77 187 5.0 11.0 0.00 0.00 0.00 25 1018.5
20240224223203 77 188 5.0 11.0 0.00 0.00 0.00 27 1018.5
20240224223003 77 191 5.0 11.0 0.00 0.00 0.00 26 1018.5
20240224222902 77 188 5.0 11.0 0.00 0.00 0.00 26 1018.5
20240224222803 77 188 5.0 11.0 0.00 0.00 0.00 26 1018.5
20240224222703 77 188 5.0 11.0 0.00 0.00 0.00 25 1018.5
20240224222603 77 191 5.0 11.0 0.00 0.00 0.00 25 1018.5
20240224222503 77 185 5.0 11.0 0.00 0.00 0.00 25 1018.5
20240224222403 77 186 5.0 11.0 0.00 0.00 0.00 25 1018.5
20240224222305 77 182 5.0 13.0 0.00 0.00 0.00 25 1018.5
20240224222103 77 177 6.0 15.0 0.00 0.00 0.00 25 1018.6
20240224222002 77 176 6.0 15.0 0.00 0.00 0.00 25 1018.5
20240224221903 77 175 6.0 15.0 0.00 0.00 0.00 25 1018.6
20240224221603 77 169 6.0 15.0 0.00 0.00 0.00 26 1018.6
20240224221503 77 172 6.0 15.0 0.00 0.00 0.00 25 1018.6
20240224221303 77 175 5.0 15.0 0.00 0.00 0.00 25 1018.6
20240224221203 78 172 5.0 15.0 0.00 0.00 0.00 25 1018.6
20240224221103 78 174 5.0 11.0 0.00 0.00 0.00 25 1018.5
20240224221003 77 175 6.0 11.0 0.00 0.00 0.00 25 1018.6
20240224220903 78 177 5.0 11.0 0.00 0.00 0.00 25 1018.6
20240224220804 78 178 5.0 11.0 0.00 0.00 0.00 25 1018.6
20240224220703 78 183 5.0 11.0 0.00 0.00 0.00 25 1018.6
20240224220603 78 183 5.0 11.0 0.00 0.00 0.00 25 1018.6
20240224220403 77 175 5.0 11.0 0.00 0.00 0.00 26 1018.6
20240224220103 77 175 5.0 10.0 0.00 0.00 0.00 25 1018.6
20240224220003 77 173 5.0 10.0 0.00 0.00 0.00 26 1018.7
20240224215903 77 170 5.0 10.0 0.00 0.00 0.00 26 1018.7
20240224215804 78 170 5.0 11.0 0.00 0.00 0.00 26 1018.7
20240224215705 78 166 5.0 11.0 0.00 0.00 0.00 27 1018.7
20240224215603 77 166 5.0 11.0 0.00 0.00 0.00 26 1018.7
20240224215403 77 170 5.0 11.0 0.00 0.00 0.00 27 1018.7
20240224215307 77 173 5.0 11.0 0.00 0.00 0.00 25 1018.7
20240224215103 78 172 5.0 11.0 0.00 0.00 0.00 26 1018.8
20240224215004 78 177 4.0 11.0 0.00 0.00 0.00 26 1018.8
20240224214903 78 179 4.0 11.0 0.00 0.00 0.00 27 1018.9
20240224214802 77 176 5.0 9.0 0.00 0.00 0.00 27 1018.8
20240224214603 77 176 5.0 13.0 0.00 0.00 0.00 25 1018.9
20240224214403 77 171 5.0 13.0 0.00 0.00 0.00 25 1018.9
20240224214303 77 172 5.0 13.0 0.00 0.00 0.00 25 1018.9
20240224214203 77 176 5.0 13.0 0.00 0.00 0.00 25 1018.9
20240224214103 78 179 5.0 13.0 0.00 0.00 0.00 25 1018.9
20240224214004 78 176 4.0 13.0 0.00 0.00 0.00 25 1018.9
20240224213903 77 179 4.0 13.0 0.00 0.00 0.00 26 1019.0
20240224213703 77 195 4.0 9.0 0.00 0.00 0.00 26 1018.9
20240224213603 77 197 4.0 9.0 0.00 0.00 0.00 26 1019.0
20240224213502 77 200 4.0 9.0 0.00 0.00 0.00 26 1019.0
20240224213303 77 197 4.0 13.0 0.00 0.00 0.00 26 1019.0
20240224213103 77 184 5.0 13.0 0.00 0.00 0.00 26 1019.1
20240224213003 77 182 5.0 13.0 0.00 0.00 0.00 26 1019.2
20240224212904 77 177 5.0 13.0 0.00 0.00 0.00 26 1019.2
20240224212803 78 175 5.0 13.0 0.00 0.00 0.00 24 1019.3
20240224212703 78 172 5.0 13.0 0.00 0.00 0.00 27 1019.2
20240224212604 78 169 5.0 13.0 0.00 0.00 0.00 27 1019.3
20240224212503 78 167 5.0 13.0 0.00 0.00 0.00 26 1019.2
20240224212403 78 164 5.0 13.0 0.00 0.00 0.00 26 1019.2
20240224212306 78 164 5.0 10.0 0.00 0.00 0.00 26 1019.2
20240224212203 77 165 5.0 11.0 0.00 0.00 0.00 27 1019.3
20240224212103 77 167 5.0 12.0 0.00 0.00 0.00 25 1019.2
20240224212003 77 167 5.0 12.0 0.00 0.00 0.00 25 1019.2
20240224211903 77 174 5.0 12.0 0.00 0.00 0.00 25 1019.2
20240224211803 77 175 6.0 12.0 0.00 0.00 0.00 25 1019.2
20240224211702 77 175 6.0 12.0 0.00 0.00 0.00 25 1019.2
20240224211603 77 178 6.0 12.0 0.00 0.00 0.00 25 1019.2
20240224211503 77 179 6.0 12.0 0.00 0.00 0.00 25 1019.3
20240224211304 77 188 6.0 12.0 0.00 0.00 0.00 25 1019.3
20240224211203 77 189 6.0 12.0 0.00 0.00 0.00 24 1019.3
20240224211103 78 192 6.0 12.0 0.00 0.00 0.00 26 1019.4
20240224211003 78 193 5.0 12.0 0.00 0.00 0.00 25 1019.4
20240224210903 77 190 6.0 12.0 0.00 0.00 0.00 24 1019.3
20240224210802 78 190 6.0 12.0 0.00 0.00 0.00 24 1019.4
20240224210703 78 186 6.0 12.0 0.00 0.00 0.00 25 1019.4
20240224210603 78 184 6.0 14.0 0.00 0.00 0.00 25 1019.3
20240224210503 77 184 6.0 14.0 0.00 0.00 0.00 25 1019.3
20240224210403 77 184 6.0 14.0 0.00 0.00 0.00 25 1019.4
20240224210203 77 182 6.0 14.0 0.00 0.00 0.00 26 1019.4
20240224210104 77 176 6.0 14.0 0.00 0.00 0.00 26 1019.4
20240224205903 77 175 5.0 14.0 0.00 0.00 0.00 25 1019.4
20240224205803 77 174 5.0 14.0 0.00 0.00 0.00 25 1019.3
20240224205703 77 179 5.0 14.0 0.00 0.00 0.00 25 1019.4
20240224205604 77 178 5.0 9.0 0.00 0.00 0.00 26 1019.4
20240224205503 78 181 5.0 9.0 0.00 0.00 0.00 25 1019.5
20240224205403 78 179 5.0 9.0 0.00 0.00 0.00 25 1019.4
20240224205306 78 183 5.0 12.0 0.00 0.00 0.00 26 1019.5
20240224205203 77 179 5.0 12.0 0.00 0.00 0.00 27 1019.5
20240224204903 77 173 5.0 12.0 0.00 0.00 0.00 28 1019.5
20240224204804 77 167 5.0 12.0 0.00 0.00 0.00 26 1019.5
20240224204703 77 165 5.0 12.0 0.00 0.00 0.00 26 1019.5
20240224204603 77 165 5.0 12.0 0.00 0.00 0.00 26 1019.5
20240224204403 77 163 4.0 12.0 0.00 0.00 0.00 27 1019.6
20240224204303 77 159 4.0 11.0 0.00 0.00 0.00 27 1019.7
20240224204203 77 160 4.0 11.0 0.00 0.00 0.00 26 1019.7
20240224204103 77 161 4.0 11.0 0.00 0.00 0.00 26 1019.7
20240224204004 78 162 4.0 11.0 0.00 0.00 0.00 26 1019.8
20240224203803 78 167 3.0 11.0 0.00 0.00 0.00 26 1019.8
20240224203703 77 166 3.0 11.0 0.00 0.00 0.00 26 1019.8
20240224203603 77 168 3.0 13.0 0.00 0.00 0.00 29 1019.6
20240224203503 77 168 4.0 13.0 0.00 0.00 0.00 28 1019.7
20240224203304 77 170 4.0 13.0 0.00 0.00 0.00 27 1019.7
20240224203203 78 173 4.0 13.0 0.00 0.00 0.00 27 1019.7
20240224203103 78 173 4.0 13.0 0.00 0.00 0.00 27 1019.7
20240224203004 78 171 4.0 13.0 0.00 0.00 0.00 26 1019.7
20240224202903 78 173 4.0 13.0 0.00 0.00 0.00 26 1019.7
20240224202803 78 173 4.0 13.0 0.00 0.00 0.00 26 1019.7
20240224202603 78 168 4.0 9.0 0.00 0.00 0.00 26 1019.7
20240224202504 78 162 4.0 9.0 0.00 0.00 0.00 26 1019.6
20240224202403 78 157 4.0 9.0 0.00 0.00 0.00 26 1019.7
20240224202305 78 154 4.0 9.0 0.00 0.00 0.00 25 1019.7
20240224202203 78 152 5.0 9.0 0.00 0.00 0.00 25 1019.7
20240224202103 78 153 5.0 12.0 0.00 0.00 0.00 27 1019.8
20240224201903 78 156 5.0 12.0 0.00 0.00 0.00 28 1019.8
20240224201604 77 153 4.0 12.0 0.00 0.00 0.00 26 1019.9
20240224201503 77 155 4.0 12.0 0.00 0.00 0.00 26 1019.9
20240224201304 77 159 4.0 12.0 0.00 0.00 0.00 26 1020.0
20240224201203 78 161 4.0 12.0 0.00 0.00 0.00 26 1020.1
20240224201104 78 160 3.0 12.0 0.00 0.00 0.00 27 1020.1
20240224201003 78 158 4.0 8.0 0.00 0.00 0.00 28 1020.0
20240224200803 77 169 4.0 8.0 0.00 0.00 0.00 28 1020.1
20240224200703 77 172 4.0 8.0 0.00 0.00 0.00 27 1020.1
20240224200603 77 178 4.0 8.0 0.00 0.00 0.00 28 1020.2
20240224200503 77 179 4.0 9.0 0.00 0.00 0.00 26 1020.2
20240224200103 77 187 4.0 9.0 0.00 0.00 0.00 26 1020.3
20240224200003 77 184 4.0 10.0 0.00 0.00 0.00 30 1020.3
20240224195903 77 179 4.0 10.0 0.00 0.00 0.00 26 1020.3
20240224195804 77 177 4.0 10.0 0.00 0.00 0.00 26 1020.3
20240224195703 77 176 5.0 10.0 0.00 0.00 0.00 26 1020.3
20240224195603 77 172 5.0 10.0 0.00 0.00 0.00 28 1020.3
20240224195403 77 165 4.0 10.0 0.00 0.00 0.00 26 1020.3
20240224195306 77 163 4.0 10.0 0.00 0.00 0.00 26 1020.4
20240224195003 76 167 4.0 9.0 0.00 0.00 0.00 26 1020.4
20240224194903 76 167 4.0 9.0 0.00 0.00 0.00 27 1020.4
20240224194803 77 166 4.0 9.0 0.00 0.00 0.00 25 1020.4
20240224194703 77 167 4.0 10.0 0.00 0.00 0.00 26 1020.5
20240224194603 77 166 4.0 10.0 0.00 0.00 0.00 28 1020.5
20240224194504 77 169 4.0 10.0 0.00 0.00 0.00 28 1020.6
20240224194403 76 171 5.0 10.0 0.00 0.00 0.00 27 1020.5
20240224194303 77 174 5.0 10.0 0.00 0.00 0.00 25 1020.6
20240224194204 77 167 5.0 12.0 0.00 0.00 0.00 26 1020.6
20240224194103 77 164 5.0 12.0 0.00 0.00 0.00 26 1020.6
20240224194003 77 165 5.0 12.0 0.00 0.00 0.00 26 1020.6
20240224193903 77 165 5.0 12.0 0.00 0.00 0.00 26 1020.6
20240224193803 76 164 5.0 12.0 0.00 0.00 0.00 26 1020.6
20240224193603 76 163 5.0 12.0 0.00 0.00 0.00 26 1020.7
20240224193503 76 167 5.0 12.0 0.00 0.00 0.00 26 1020.7
20240224193403 76 165 5.0 12.0 0.00 0.00 0.00 26 1020.7
20240224193304 76 163 4.0 12.0 0.00 0.00 0.00 26 1020.7
20240224193203 76 168 3.0 11.0 0.00 0.00 0.00 26 1020.8
20240224193003 77 166 4.0 11.0 0.00 0.00 0.00 27 1020.8
20240224192804 76 165 4.0 11.0 0.00 0.00 0.00 27 1020.8
20240224192603 76 161 4.0 11.0 0.00 0.00 0.00 25 1020.9
20240224192504 76 159 4.0 11.0 0.00 0.00 0.00 25 1020.9
20240224192403 76 161 4.0 11.0 0.00 0.00 0.00 26 1020.9
20240224192203 76 159 4.0 11.0 0.00 0.00 0.00 25 1020.9
20240224192104 76 159 4.0 11.0 0.00 0.00 0.00 26 1021.0
20240224192003 76 159 4.0 11.0 0.00 0.00 0.00 26 1020.9
20240224191903 76 163 4.0 11.0 0.00 0.00 0.00 25 1021.0
20240224191803 76 166 3.0 11.0 0.00 0.00 0.00 25 1021.0
20240224191703 76 170 3.0 9.0 0.00 0.00 0.00 28 1021.0
20240224191603 76 173 3.0 9.0 0.00 0.00 0.00 25 1021.0
20240224191503 76 174 2.0 9.0 0.00 0.00 0.00 25 1021.0
20240224191203 76 189 3.0 9.0 0.00 0.00 0.00 28 1021.1
20240224191103 76 193 3.0 9.0 0.00 0.00 0.00 30 1021.1